Observation data for Colorado City on 01/17/2021      Previous  Date  Next       Current Mesonet Observations  Soil Data  Daily Summary Page  Observations in Plain Language
KCO2 170600Z 01008KT 02/M04 A301 RMK A01 T00161044  RH  064%=      5-min Rain = 0
KCO2 170601Z 01008KT 02/M05 A301 RMK A01 T00151045  RH  065%=      5-min Rain = 0
KCO2 170602Z 01008KT 02/M05 A301 RMK A01 T00151045  RH  065%=      5-min Rain = 0
KCO2 170603Z 01008KT 02/M05 A301 RMK A01 T00151045  RH  065%=      5-min Rain = 0
KCO2 170604Z 00008KT 02/M05 A301 RMK A01 T00151045  RH  065%=      5-min Rain = 0
KCO2 170605Z 00008KT 01/M05 A301 RMK A01 T00141045  RH  065%=      5-min Rain = 0
KCO2 170606Z 00008KT 01/M05 A301 RMK A01 T00141045  RH  065%=      5-min Rain = 0
KCO2 170607Z 00007KT 01/M05 A301 RMK A01 T00141045  RH  065%=      5-min Rain = 0
KCO2 170608Z 00007KT 01/M05 A301 RMK A01 T00141046  RH  065%=      5-min Rain = 0
KCO2 170609Z 00007KT 01/M05 A301 RMK A01 T00131046  RH  065%=      5-min Rain = 0
KCO2 170610Z 00006KT 01/M05 A301 RMK A01 T00121046  RH  065%=      5-min Rain = 0
KCO2 170611Z 00007KT 01/M05 A301 RMK A01 T00111046  RH  065%=      5-min Rain = 0
KCO2 170612Z 00007KT 01/M05 A301 RMK A01 T00101047  RH  066%=      5-min Rain = 0
KCO2 170613Z 00007KT 01/M05 A301 RMK A01 T00101046  RH  066%=      5-min Rain = 0
KCO2 170614Z 00007KT 01/M05 A3011 RMK A01 T00091047  RH  066%=      5-min Rain = 0
KCO2 170615Z 00007KT 01/M05 A3011 RMK A01 T00101046  RH  066%=      5-min Rain = 0
KCO2 170616Z 00007KT 01/M05 A3011 RMK A01 T00101046  RH  066%=      5-min Rain = 0
KCO2 170617Z 36006KT 01/M05 A3011 RMK A01 T00101046  RH  066%=      5-min Rain = 0
KCO2 170618Z 36005KT 01/M05 A3011 RMK A01 T00111046  RH  066%=      5-min Rain = 0
KCO2 170619Z 35004KT 01/M05 A3011 RMK A01 T00111046  RH  066%=      5-min Rain = 0
KCO2 170620Z 34003KT 01/M05 A3011 RMK A01 T00101046  RH  066%=      5-min Rain = 0
KCO2 170621Z 34003KT 01/M05 A3011 RMK A01 T00091047  RH  066%=      5-min Rain = 0
KCO2 170622Z 34003KT 01/M05 A3011 RMK A01 T00071048  RH  067%=      5-min Rain = 0
KCO2 170623Z 34003KT 01/M05 A3011 RMK A01 T00051048  RH  068%=      5-min Rain = 0
KCO2 170624Z 35003KT 01/M05 A3011 RMK A01 T00051047  RH  068%=      5-min Rain = 0
KCO2 170625Z 34003KT 01/M05 A3011 RMK A01 T00061046  RH  068%=      5-min Rain = 0
KCO2 170626Z 33003KT 01/M05 A3011 RMK A01 T00071046  RH  068%=      5-min Rain = 0
KCO2 170627Z 32003KT 01/M05 A3011 RMK A01 T00071046  RH  068%=      5-min Rain = 0
KCO2 170628Z 31002KT 01/M05 A3011 RMK A01 T00071047  RH  067%=      5-min Rain = 0
KCO2 170629Z 28001KT 01/M05 A3011 RMK A01 T00061047  RH  067%=      5-min Rain = 0
KCO2 170630Z 23001KT 00/M05 A3011 RMK A01 T00031049  RH  068%=      5-min Rain = 0
KCO2 170631Z 25001KT 00/M05 A3011 RMK A01 T00011050  RH  069%=      5-min Rain = 0
KCO2 170632Z 31001KT 00/05 A3011 RMK A01 T00-00-49  RH  070%=      5-min Rain = 0
KCO2 170633Z 32002KT 00/05 A3011 RMK A01 T00-00-48  RH  070%=      5-min Rain = 0
KCO2 170634Z 31001KT 00/05 A3011 RMK A01 T00-00-48  RH  070%=      5-min Rain = 0
KCO2 170635Z 00000KT 00/05 A3011 RMK A01 T00000-47  RH  070%=      5-min Rain = 0
KCO2 170636Z 34000KT 00/M05 A3011 RMK A01 T00011048  RH  070%=      5-min Rain = 0
KCO2 170637Z 33002KT M00/M05 A3011 RMK A01 T10011049  RH  070%=      5-min Rain = 0
KCO2 170638Z 34002KT M00/M05 A3011 RMK A01 T10011048  RH  071%=      5-min Rain = 0
KCO2 170639Z 34002KT M00/M05 A3011 RMK A01 T10011049  RH  070%=      5-min Rain = 0
KCO2 170640Z 34001KT M00/M05 A3011 RMK A01 T10031051  RH  070%=      5-min Rain = 0
KCO2 170641Z 33001KT M01/M05 A3011 RMK A01 T10051051  RH  071%=      5-min Rain = 0
KCO2 170642Z 33002KT M01/M05 A3011 RMK A01 T10051049  RH  072%=      5-min Rain = 0
KCO2 170643Z 33002KT M00/M05 A3011 RMK A01 T10041048  RH  072%=      5-min Rain = 0
KCO2 170644Z 33003KT M00/M05 A3011 RMK A01 T10021046  RH  072%=      5-min Rain = 0
KCO2 170645Z 32002KT 00/M05 A3011 RMK A01 T00011045  RH  071%=      5-min Rain = 0
KCO2 170646Z 33002KT 00/M05 A3011 RMK A01 T00021046  RH  070%=      5-min Rain = 0
KCO2 170647Z 33002KT 00/M05 A3011 RMK A01 T00031046  RH  070%=      5-min Rain = 0
KCO2 170648Z 33002KT 00/M05 A3011 RMK A01 T00031047  RH  069%=      5-min Rain = 0
KCO2 170649Z 33002KT 00/M05 A3011 RMK A01 T00031047  RH  069%=      5-min Rain = 0
KCO2 170650Z 33002KT 00/M05 A3011 RMK A01 T00031047  RH  069%=      5-min Rain = 0
KCO2 170651Z 32002KT 00/M05 A3011 RMK A01 T00021048  RH  069%=      5-min Rain = 0
KCO2 170652Z 31002KT 00/M05 A3011 RMK A01 T00021048  RH  069%=      5-min Rain = 0
KCO2 170653Z 31002KT 00/M05 A3011 RMK A01 T00021047  RH  069%=      5-min Rain = 0
KCO2 170654Z 31003KT 00/M05 A3011 RMK A01 T00021047  RH  069%=      5-min Rain = 0
KCO2 170655Z 32003KT 00/M05 A3011 RMK A01 T00031047  RH  069%=      5-min Rain = 0
KCO2 170656Z 33004KT 00/M05 A3011 RMK A01 T00031047  RH  069%=      5-min Rain = 0
KCO2 170657Z 33004KT 00/M05 A3011 RMK A01 T00031047  RH  069%=      5-min Rain = 0
KCO2 170658Z 33004KT 00/M05 A3011 RMK A01 T00021048  RH  069%=      5-min Rain = 0
KCO2 170659Z 32004KT 00/M05 A3011 RMK A01 T00021048  RH  069%=      5-min Rain = 0
KCO2 170700Z 32004KT 00/M05 A3011 RMK A01 T00011048  RH  069%=      5-min Rain = 0
KCO2 170701Z 31004KT 00/05 A3011 RMK A01 T00000-49  RH  070%=      5-min Rain = 0
KCO2 170702Z 31004KT M00/M05 A3011 RMK A01 T10011049  RH  070%=      5-min Rain = 0
KCO2 170703Z 31004KT M00/M05 A3011 RMK A01 T10011049  RH  070%=      5-min Rain = 0
KCO2 170704Z 31004KT M00/M05 A3011 RMK A01 T10021048  RH  071%=      5-min Rain = 0
KCO2 170705Z 31004KT M00/M05 A3011 RMK A01 T10021048  RH  071%=      5-min Rain = 0
KCO2 170706Z 31004KT M00/M05 A3011 RMK A01 T10021048  RH  071%=      5-min Rain = 0
KCO2 170707Z 31004KT M00/M05 A3011 RMK A01 T10031049  RH  071%=      5-min Rain = 0
KCO2 170708Z 30004KT M01/M05 A3011 RMK A01 T10051050  RH  071%=      5-min Rain = 0
KCO2 170709Z 30004KT M01/M05 A3011 RMK A01 T10051049  RH  072%=      5-min Rain = 0
KCO2 170710Z 31004KT M01/M05 A3011 RMK A01 T10051049  RH  073%=      5-min Rain = 0
KCO2 170711Z 32004KT M01/M05 A3011 RMK A01 T10061049  RH  073%=      5-min Rain = 0
KCO2 170712Z 32005KT M01/M05 A3011 RMK A01 T10071049  RH  073%=      5-min Rain = 0
KCO2 170713Z 32005KT M01/M05 A3011 RMK A01 T10071049  RH  074%=      5-min Rain = 0
KCO2 170714Z 33005KT M01/M05 A3011 RMK A01 T10081049  RH  074%=      5-min Rain = 0
KCO2 170715Z 33006KT M01/M05 A3011 RMK A01 T10091049  RH  074%=      5-min Rain = 0
KCO2 170716Z 32005KT M01/M05 A3011 RMK A01 T10101050  RH  074%=      5-min Rain = 0
KCO2 170717Z 32005KT M01/M05 A3011 RMK A01 T10111051  RH  075%=      5-min Rain = 0
KCO2 170718Z 33006KT M01/M05 A3011 RMK A01 T10131052  RH  075%=      5-min Rain = 0
KCO2 170719Z 33006KT M02/M05 A3011 RMK A01 T10151052  RH  075%=      5-min Rain = 0
KCO2 170720Z 33006KT M02/M05 A3011 RMK A01 T10161053  RH  076%=      5-min Rain = 0
KCO2 170721Z 33006KT M02/M05 A3011 RMK A01 T10181054  RH  077%=      5-min Rain = 0
KCO2 170722Z 33006KT M02/M05 A3011 RMK A01 T10191053  RH  078%=      5-min Rain = 0
KCO2 170723Z 33006KT M02/M05 A3011 RMK A01 T10191052  RH  079%=      5-min Rain = 0
KCO2 170724Z 33006KT M02/M05 A3011 RMK A01 T10201052  RH  079%=      5-min Rain = 0
KCO2 170725Z 33006KT M02/M05 A3011 RMK A01 T10211051  RH  079%=      5-min Rain = 0
KCO2 170726Z 32006KT M02/M05 A3011 RMK A01 T10211051  RH  080%=      5-min Rain = 0
KCO2 170727Z 32006KT M02/M05 A3011 RMK A01 T10211050  RH  080%=      5-min Rain = 0
KCO2 170728Z 32006KT M02/M05 A3011 RMK A01 T10201049  RH  080%=      5-min Rain = 0
KCO2 170729Z 32006KT M02/M05 A3011 RMK A01 T10191049  RH  080%=      5-min Rain = 0
KCO2 170730Z 32006KT M02/M05 A3012 RMK A01 T10191049  RH  080%=      5-min Rain = 0
KCO2 170731Z 32006KT M02/M05 A3012 RMK A01 T10191050  RH  080%=      5-min Rain = 0
KCO2 170732Z 32006KT M02/M05 A3012 RMK A01 T10191049  RH  080%=      5-min Rain = 0
KCO2 170733Z 32006KT M02/M05 A3012 RMK A01 T10191050  RH  080%=      5-min Rain = 0
KCO2 170734Z 32006KT M02/M05 A3012 RMK A01 T10191050  RH  080%=      5-min Rain = 0
KCO2 170735Z 32006KT M02/M05 A3012 RMK A01 T10191050  RH  079%=      5-min Rain = 0
KCO2 170736Z 32006KT M02/M05 A3012 RMK A01 T10191051  RH  079%=      5-min Rain = 0
KCO2 170737Z 32006KT M02/M05 A3012 RMK A01 T10201052  RH  079%=      5-min Rain = 0
KCO2 170738Z 32006KT M02/M05 A3012 RMK A01 T10211053  RH  079%=      5-min Rain = 0
KCO2 170739Z 32006KT M02/M05 A3012 RMK A01 T10211053  RH  079%=      5-min Rain = 0
KCO2 170740Z 31005KT M02/M05 A3012 RMK A01 T10211052  RH  079%=      5-min Rain = 0
KCO2 170741Z 32005KT M02/M05 A3012 RMK A01 T10201050  RH  080%=      5-min Rain = 0
KCO2 170742Z 31005KT M02/M05 A3012 RMK A01 T10191049  RH  080%=      5-min Rain = 0
KCO2 170743Z 31005KT M02/M05 A3012 RMK A01 T10181050  RH  079%=      5-min Rain = 0
KCO2 170744Z 31005KT M02/M05 A3012 RMK A01 T10181050  RH  079%=      5-min Rain = 0
KCO2 170745Z 31005KT M02/M05 A3012 RMK A01 T10181050  RH  079%=      5-min Rain = 0
KCO2 170746Z 31005KT M02/M05 A3012 RMK A01 T10171050  RH  079%=      5-min Rain = 0
KCO2 170747Z 32005KT M02/M05 A3012 RMK A01 T10171049  RH  078%=      5-min Rain = 0
KCO2 170748Z 32005KT M02/M05 A3012 RMK A01 T10171050  RH  078%=      5-min Rain = 0
KCO2 170749Z 31005KT M02/M05 A3012 RMK A01 T10161050  RH  078%=      5-min Rain = 0
KCO2 170750Z 31005KT M02/M05 A3012 RMK A01 T10171051  RH  078%=      5-min Rain = 0
KCO2 170751Z 31005KT M02/M05 A3012 RMK A01 T10171051  RH  078%=      5-min Rain = 0
KCO2 170752Z 31005KT M02/M05 A3012 RMK A01 T10171050  RH  078%=      5-min Rain = 0
KCO2 170753Z 31005KT M02/M05 A3012 RMK A01 T10161050  RH  078%=      5-min Rain = 0
KCO2 170754Z 31005KT M02/M05 A3012 RMK A01 T10161050  RH  078%=      5-min Rain = 0
KCO2 170755Z 31005KT M02/M05 A3011 RMK A01 T10151049  RH  078%=      5-min Rain = 0
KCO2 170756Z 31004KT M01/M05 A3011 RMK A01 T10141048  RH  077%=      5-min Rain = 0
KCO2 170757Z 30004KT M01/M05 A3011 RMK A01 T10131049  RH  077%=      5-min Rain = 0
KCO2 170758Z 30003KT M01/M05 A3011 RMK A01 T10131049  RH  077%=      5-min Rain = 0
KCO2 170759Z 29003KT M01/M05 A3011 RMK A01 T10131049  RH  077%=      5-min Rain = 0
KCO2 170800Z 30003KT M01/M05 A3011 RMK A01 T10121047  RH  077%=      5-min Rain = 0
KCO2 170801Z 30003KT M01/M05 A3011 RMK A01 T10111046  RH  077%=      5-min Rain = 0
KCO2 170802Z 30003KT M01/M05 A3011 RMK A01 T10101046  RH  076%=      5-min Rain = 0
KCO2 170803Z 30003KT M01/M05 A3011 RMK A01 T10101046  RH  076%=      5-min Rain = 0
KCO2 170804Z 30003KT M01/M05 A3011 RMK A01 T10091046  RH  076%=      5-min Rain = 0
KCO2 170805Z 30001KT M01/M05 A3011 RMK A01 T10091047  RH  076%=      5-min Rain = 0
KCO2 170806Z 30001KT M01/M05 A3011 RMK A01 T10111049  RH  075%=      5-min Rain = 0
KCO2 170807Z 30001KT M01/M05 A3011 RMK A01 T10141052  RH  075%=      5-min Rain = 0
KCO2 170808Z 30002KT M02/M05 A3011 RMK A01 T10161051  RH  077%=      5-min Rain = 0
KCO2 170809Z 30002KT M02/M05 A3011 RMK A01 T10161051  RH  078%=      5-min Rain = 0
KCO2 170810Z 30001KT M02/M05 A3011 RMK A01 T10171050  RH  078%=      5-min Rain = 0
KCO2 170811Z 30002KT M02/M05 A3011 RMK A01 T10171049  RH  079%=      5-min Rain = 0
KCO2 170812Z 31003KT M02/M05 A3011 RMK A01 T10171049  RH  079%=      5-min Rain = 0
KCO2 170813Z 31002KT M02/M05 A3011 RMK A01 T10171048  RH  079%=      5-min Rain = 0
KCO2 170814Z 32002KT M02/M05 A3011 RMK A01 T10161047  RH  079%=      5-min Rain = 0
KCO2 170815Z 32002KT M02/M05 A3011 RMK A01 T10171050  RH  078%=      5-min Rain = 0
KCO2 170816Z 32002KT M02/M05 A3011 RMK A01 T10171052  RH  077%=      5-min Rain = 0
KCO2 170817Z 32002KT M02/M05 A3011 RMK A01 T10171050  RH  078%=      5-min Rain = 0
KCO2 170818Z 32002KT M02/M05 A3011 RMK A01 T10171049  RH  079%=      5-min Rain = 0
KCO2 170819Z 31002KT M02/M05 A3011 RMK A01 T10161049  RH  079%=      5-min Rain = 0
KCO2 170820Z 31002KT M02/M05 A3011 RMK A01 T10161049  RH  079%=      5-min Rain = 0
KCO2 170821Z 31002KT M02/M05 A3011 RMK A01 T10161047  RH  079%=      5-min Rain = 0
KCO2 170822Z 31002KT M02/M05 A3011 RMK A01 T10151047  RH  079%=      5-min Rain = 0
KCO2 170823Z 31001KT M02/M05 A3011 RMK A01 T10151047  RH  079%=      5-min Rain = 0
KCO2 170824Z 31001KT M02/M05 A3011 RMK A01 T10151048  RH  078%=      5-min Rain = 0
KCO2 170825Z 30001KT M02/M05 A301 RMK A01 T10151048  RH  078%=      5-min Rain = 0
KCO2 170826Z 30001KT M02/M05 A301 RMK A01 T10151048  RH  078%=      5-min Rain = 0
KCO2 170827Z 00000KT M01/M05 A301 RMK A01 T10141047  RH  078%=      5-min Rain = 0
KCO2 170828Z 23001KT M01/M05 A301 RMK A01 T10141048  RH  078%=      5-min Rain = 0
KCO2 170829Z 23001KT M01/M05 A301 RMK A01 T10141048  RH  077%=      5-min Rain = 0
KCO2 170830Z 23000KT M01/M05 A301 RMK A01 T10141049  RH  077%=      5-min Rain = 0
KCO2 170831Z 24001KT M01/M05 A3011 RMK A01 T10141048  RH  077%=      5-min Rain = 0
KCO2 170832Z 27001KT M01/M05 A3011 RMK A01 T10141048  RH  078%=      5-min Rain = 0
KCO2 170833Z 30002KT M02/M05 A3011 RMK A01 T10151048  RH  078%=      5-min Rain = 0
KCO2 170834Z 30002KT M02/M05 A3011 RMK A01 T10151048  RH  078%=      5-min Rain = 0
KCO2 170835Z 30003KT M02/M05 A3011 RMK A01 T10151049  RH  078%=      5-min Rain = 0
KCO2 170836Z 31003KT M02/M05 A3011 RMK A01 T10151048  RH  078%=      5-min Rain = 0
KCO2 170837Z 31003KT M01/M05 A3011 RMK A01 T10141046  RH  079%=      5-min Rain = 0
KCO2 170838Z 31003KT M01/M05 A3011 RMK A01 T10131046  RH  078%=      5-min Rain = 0
KCO2 170839Z 31004KT M01/M05 A3011 RMK A01 T10131048  RH  077%=      5-min Rain = 0
KCO2 170840Z 31004KT M01/M05 A3011 RMK A01 T10131048  RH  077%=      5-min Rain = 0
KCO2 170841Z 31003KT M01/M05 A3011 RMK A01 T10121047  RH  077%=      5-min Rain = 0
KCO2 170842Z 31004KT M01/M05 A3011 RMK A01 T10131049  RH  076%=      5-min Rain = 0
KCO2 170843Z 31004KT M01/M05 A3011 RMK A01 T10141051  RH  076%=      5-min Rain = 0
KCO2 170844Z 32003KT M02/M05 A3011 RMK A01 T10151050  RH  077%=      5-min Rain = 0
KCO2 170845Z 32003KT M02/M05 A3011 RMK A01 T10151050  RH  077%=      5-min Rain = 0
KCO2 170846Z 32003KT M02/M05 A3011 RMK A01 T10171052  RH  077%=      5-min Rain = 0
KCO2 170847Z 31003KT M02/M05 A3011 RMK A01 T10181052  RH  077%=      5-min Rain = 0
KCO2 170848Z 31003KT M02/M05 A3011 RMK A01 T10181051  RH  078%=      5-min Rain = 0
KCO2 170849Z 30003KT M02/M05 A3011 RMK A01 T10181051  RH  078%=      5-min Rain = 0
KCO2 170850Z 30004KT M02/M05 A3011 RMK A01 T10171050  RH  078%=      5-min Rain = 0
KCO2 170851Z 30004KT M02/M05 A3011 RMK A01 T10171049  RH  079%=      5-min Rain = 0
KCO2 170852Z 31004KT M02/M05 A3011 RMK A01 T10161049  RH  078%=      5-min Rain = 0
KCO2 170853Z 31004KT M02/M05 A3011 RMK A01 T10181053  RH  077%=      5-min Rain = 0
KCO2 170854Z 30004KT M02/M06 A3011 RMK A01 T10211055  RH  077%=      5-min Rain = 0
KCO2 170855Z 31004KT M02/M06 A3011 RMK A01 T10221055  RH  079%=      5-min Rain = 0
KCO2 170856Z 31004KT M02/M05 A3011 RMK A01 T10221053  RH  080%=      5-min Rain = 0
KCO2 170857Z 32004KT M02/M05 A3011 RMK A01 T10221052  RH  080%=      5-min Rain = 0
KCO2 170858Z 31004KT M03/M06 A3011 RMK A01 T10251056  RH  079%=      5-min Rain = 0
KCO2 170859Z 31004KT M03/M06 A3011 RMK A01 T10271058  RH  079%=      5-min Rain = 0
KCO2 170900Z 31004KT M03/M06 A3011 RMK A01 T10281057  RH  080%=      5-min Rain = 0
KCO2 170901Z 32004KT M03/M05 A3011 RMK A01 T10271054  RH  082%=      5-min Rain = 0
KCO2 170902Z 33004KT M03/M05 A3011 RMK A01 T10261052  RH  082%=      5-min Rain = 0
KCO2 170903Z 33004KT M03/M05 A3011 RMK A01 T10261053  RH  082%=      5-min Rain = 0
KCO2 170904Z 33004KT M03/M05 A3011 RMK A01 T10261053  RH  082%=      5-min Rain = 0
KCO2 170905Z 33003KT M03/M05 A3011 RMK A01 T10271054  RH  082%=      5-min Rain = 0
KCO2 170906Z 34003KT M03/M05 A3011 RMK A01 T10271054  RH  082%=      5-min Rain = 0
KCO2 170907Z 34004KT M03/M05 A3011 RMK A01 T10281054  RH  082%=      5-min Rain = 0
KCO2 170908Z 34005KT M03/M05 A3011 RMK A01 T10271053  RH  082%=      5-min Rain = 0
KCO2 170909Z 34005KT M03/M05 A3011 RMK A01 T10271054  RH  082%=      5-min Rain = 0
KCO2 170910Z 35006KT M03/M05 A3011 RMK A01 T10271053  RH  082%=      5-min Rain = 0
KCO2 170911Z 35006KT M03/M05 A3011 RMK A01 T10271054  RH  082%=      5-min Rain = 0
KCO2 170912Z 35007KT M03/M05 A3011 RMK A01 T10271054  RH  082%=      5-min Rain = 0
KCO2 170913Z 35007KT M03/M05 A3011 RMK A01 T10261053  RH  082%=      5-min Rain = 0
KCO2 170914Z 35008KT M03/M05 A3011 RMK A01 T10271054  RH  082%=      5-min Rain = 0
KCO2 170915Z 35008KT M03/M05 A3011 RMK A01 T10271054  RH  082%=      5-min Rain = 0
KCO2 170916Z 35009KT M03/M05 A3011 RMK A01 T10281054  RH  082%=      5-min Rain = 0
KCO2 170917Z 35009KT M03/M05 A3011 RMK A01 T10291054  RH  083%=      5-min Rain = 0
KCO2 170918Z 35009KT M03/M05 A3011 RMK A01 T10281052  RH  084%=      5-min Rain = 0
KCO2 170919Z 35009KT M03/M05 A3011 RMK A01 T10261049  RH  084%=      5-min Rain = 0
KCO2 170920Z 35009KT M03/M05 A3011 RMK A01 T10251047  RH  085%=      5-min Rain = 0
KCO2 170921Z 35008KT M02/M05 A3011 RMK A01 T10241047  RH  084%=      5-min Rain = 0
KCO2 170922Z 35008KT M02/M05 A3011 RMK A01 T10231046  RH  084%=      5-min Rain = 0
KCO2 170923Z 35007KT M02/M05 A3011 RMK A01 T10221045  RH  084%=      5-min Rain = 0
KCO2 170924Z 35007KT M02/M05 A3011 RMK A01 T10211045  RH  084%=      5-min Rain = 0
KCO2 170925Z 35007KT M02/M05 A301 RMK A01 T10211045  RH  083%=      5-min Rain = 0
KCO2 170926Z 35007KT M02/M05 A301 RMK A01 T10211046  RH  083%=      5-min Rain = 0
KCO2 170927Z 35007KT M02/M05 A3011 RMK A01 T10211046  RH  083%=      5-min Rain = 0
KCO2 170928Z 35007KT M02/M05 A3011 RMK A01 T10211046  RH  083%=      5-min Rain = 0
KCO2 170929Z 34007KT M02/M05 A3011 RMK A01 T10211046  RH  083%=      5-min Rain = 0
KCO2 170930Z 35007KT M02/M05 A3011 RMK A01 T10211046  RH  083%=      5-min Rain = 0
KCO2 170931Z 35007KT M02/M05 A3011 RMK A01 T10211047  RH  082%=      5-min Rain = 0
KCO2 170932Z 35007KT M02/M05 A3011 RMK A01 T10201047  RH  082%=      5-min Rain = 0
KCO2 170933Z 35007KT M02/M05 A3011 RMK A01 T10211048  RH  082%=      5-min Rain = 0
KCO2 170934Z 34006KT M02/M05 A3011 RMK A01 T10211048  RH  082%=      5-min Rain = 0
KCO2 170935Z 34006KT M02/M05 A3011 RMK A01 T10211048  RH  082%=      5-min Rain = 0
KCO2 170936Z 34006KT M02/M05 A3011 RMK A01 T10211048  RH  082%=      5-min Rain = 0
KCO2 170937Z 34006KT M02/M05 A3011 RMK A01 T10221049  RH  082%=      5-min Rain = 0
KCO2 170938Z 34006KT M02/M05 A3011 RMK A01 T10231049  RH  082%=      5-min Rain = 0
KCO2 170939Z 34007KT M02/M05 A3011 RMK A01 T10231050  RH  082%=      5-min Rain = 0
KCO2 170940Z 34007KT M02/M05 A3011 RMK A01 T10241050  RH  082%=      5-min Rain = 0
KCO2 170941Z 34008KT M02/M05 A3011 RMK A01 T10241050  RH  083%=      5-min Rain = 0
KCO2 170942Z 34008KT M02/M05 A3011 RMK A01 T10241050  RH  083%=      5-min Rain = 0
KCO2 170943Z 34008KT M02/M05 A3011 RMK A01 T10241050  RH  083%=      5-min Rain = 0
KCO2 170944Z 35008KT M02/M05 A3011 RMK A01 T10241050  RH  083%=      5-min Rain = 0
KCO2 170945Z 34007KT M02/M05 A3011 RMK A01 T10241049  RH  083%=      5-min Rain = 0
KCO2 170946Z 34007KT M02/M05 A3011 RMK A01 T10241050  RH  083%=      5-min Rain = 0
KCO2 170947Z 34006KT M02/M05 A3011 RMK A01 T10241050  RH  083%=      5-min Rain = 0
KCO2 170948Z 34006KT M03/M05 A3011 RMK A01 T10251050  RH  083%=      5-min Rain = 0
KCO2 170949Z 34006KT M03/M05 A3011 RMK A01 T10251051  RH  083%=      5-min Rain = 0
KCO2 170950Z 34007KT M03/M05 A3011 RMK A01 T10261051  RH  083%=      5-min Rain = 0
KCO2 170951Z 34007KT M03/M05 A3011 RMK A01 T10271051  RH  083%=      5-min Rain = 0
KCO2 170952Z 34007KT M03/M05 A3011 RMK A01 T10271051  RH  083%=      5-min Rain = 0
KCO2 170953Z 34008KT M03/M05 A3011 RMK A01 T10271051  RH  084%=      5-min Rain = 0
KCO2 170954Z 34008KT M03/M05 A3011 RMK A01 T10271051  RH  084%=      5-min Rain = 0
KCO2 170955Z 35008KT M03/M05 A3011 RMK A01 T10281051  RH  084%=      5-min Rain = 0
KCO2 170956Z 35008KT M03/M05 A3011 RMK A01 T10281051  RH  084%=      5-min Rain = 0
KCO2 170957Z 35008KT M03/M05 A3011 RMK A01 T10281051  RH  084%=      5-min Rain = 0
KCO2 170958Z 35009KT M03/M05 A3011 RMK A01 T10271050  RH  084%=      5-min Rain = 0
KCO2 170959Z 35009KT M03/M05 A3011 RMK A01 T10271050  RH  084%=      5-min Rain = 0
KCO2 171000Z 35009KT M03/M05 A3011 RMK A01 T10261050  RH  084%=      5-min Rain = 0
KCO2 171001Z 35009KT M03/M05 A3011 RMK A01 T10261050  RH  083%=      5-min Rain = 0
KCO2 171002Z 35009KT M03/M05 A3011 RMK A01 T10251050  RH  083%=      5-min Rain = 0
KCO2 171003Z 35009KT M03/M05 A3011 RMK A01 T10251050  RH  083%=      5-min Rain = 0
KCO2 171004Z 35009KT M03/M05 A3012 RMK A01 T10251050  RH  083%=      5-min Rain = 0
KCO2 171005Z 35009KT M02/M05 A3012 RMK A01 T10241049  RH  083%=      5-min Rain = 0
KCO2 171006Z 35009KT M02/M05 A3012 RMK A01 T10241049  RH  083%=      5-min Rain = 0
KCO2 171007Z 35008KT M02/M05 A3012 RMK A01 T10231049  RH  083%=      5-min Rain = 0
KCO2 171008Z 35008KT M02/M05 A3012 RMK A01 T10231049  RH  082%=      5-min Rain = 0
KCO2 171009Z 35007KT M02/M05 A3012 RMK A01 T10241050  RH  082%=      5-min Rain = 0
KCO2 171010Z 35007KT M02/M05 A3012 RMK A01 T10241050  RH  082%=      5-min Rain = 0
KCO2 171011Z 34008KT M02/M05 A3012 RMK A01 T10241050  RH  083%=      5-min Rain = 0
KCO2 171012Z 34007KT M03/M05 A3012 RMK A01 T10251050  RH  083%=      5-min Rain = 0
KCO2 171013Z 34007KT M03/M05 A3012 RMK A01 T10251050  RH  083%=      5-min Rain = 0
KCO2 171014Z 34007KT M03/M05 A3012 RMK A01 T10251050  RH  083%=      5-min Rain = 0
KCO2 171015Z 34007KT M03/M05 A3012 RMK A01 T10251050  RH  083%=      5-min Rain = 0
KCO2 171016Z 34007KT M03/M05 A3012 RMK A01 T10251050  RH  083%=      5-min Rain = 0
KCO2 171017Z 34006KT M03/M05 A3012 RMK A01 T10251050  RH  083%=      5-min Rain = 0
KCO2 171018Z 34006KT M03/M05 A3012 RMK A01 T10261050  RH  083%=      5-min Rain = 0
KCO2 171019Z 34006KT M03/M05 A3012 RMK A01 T10261051  RH  083%=      5-min Rain = 0
KCO2 171020Z 34007KT M03/M05 A3012 RMK A01 T10271051  RH  084%=      5-min Rain = 0
KCO2 171021Z 34007KT M03/M05 A3012 RMK A01 T10271051  RH  084%=      5-min Rain = 0
KCO2 171022Z 34006KT M03/M05 A3012 RMK A01 T10271050  RH  084%=      5-min Rain = 0
KCO2 171023Z 34007KT M03/M05 A3012 RMK A01 T10271050  RH  084%=      5-min Rain = 0
KCO2 171024Z 34007KT M03/M05 A3012 RMK A01 T10281051  RH  084%=      5-min Rain = 0
KCO2 171025Z 34007KT M03/M05 A3012 RMK A01 T10271050  RH  084%=      5-min Rain = 0
KCO2 171026Z 34007KT M03/M05 A3012 RMK A01 T10281051  RH  084%=      5-min Rain = 0
KCO2 171027Z 34007KT M03/M05 A3012 RMK A01 T10281050  RH  085%=      5-min Rain = 0
KCO2 171028Z 34007KT M03/M05 A3012 RMK A01 T10281050  RH  085%=      5-min Rain = 0
KCO2 171029Z 34006KT M03/M05 A3012 RMK A01 T10281050  RH  085%=      5-min Rain = 0
KCO2 171030Z 35007KT M03/M05 A3012 RMK A01 T10281050  RH  085%=      5-min Rain = 0
KCO2 171031Z 35007KT M03/M05 A3012 RMK A01 T10281050  RH  085%=      5-min Rain = 0
KCO2 171032Z 35007KT M03/M05 A3012 RMK A01 T10281050  RH  085%=      5-min Rain = 0
KCO2 171033Z 35006KT M03/M05 A3012 RMK A01 T10281050  RH  085%=      5-min Rain = 0
KCO2 171034Z 35006KT M03/M05 A3012 RMK A01 T10281050  RH  085%=      5-min Rain = 0
KCO2 171035Z 35005KT M03/M05 A3012 RMK A01 T10281050  RH  085%=      5-min Rain = 0
KCO2 171036Z 35006KT M03/M05 A3012 RMK A01 T10281050  RH  084%=      5-min Rain = 0
KCO2 171037Z 35008KT M03/M05 A3012 RMK A01 T10291052  RH  084%=      5-min Rain = 0
KCO2 171038Z 35008KT M03/M05 A3012 RMK A01 T10301052  RH  085%=      5-min Rain = 0
KCO2 171039Z 35008KT M03/M05 A3012 RMK A01 T10301052  RH  085%=      5-min Rain = 0
KCO2 171040Z 35007KT M03/M05 A3011 RMK A01 T10291050  RH  086%=      5-min Rain = 0
KCO2 171041Z 36007KT M03/M05 A3011 RMK A01 T10291049  RH  086%=      5-min Rain = 0
KCO2 171042Z 35007KT M03/M05 A3011 RMK A01 T10281049  RH  086%=      5-min Rain = 0
KCO2 171043Z 36007KT M03/M05 A3011 RMK A01 T10281049  RH  085%=      5-min Rain = 0
KCO2 171044Z 36006KT M03/M05 A3011 RMK A01 T10281050  RH  085%=      5-min Rain = 0
KCO2 171045Z 36006KT M03/M05 A3011 RMK A01 T10281050  RH  085%=      5-min Rain = 0
KCO2 171046Z 35006KT M03/M05 A3011 RMK A01 T10281050  RH  085%=      5-min Rain = 0
KCO2 171047Z 35006KT M03/M05 A3011 RMK A01 T10281050  RH  085%=      5-min Rain = 0
KCO2 171048Z 35005KT M03/M05 A3012 RMK A01 T10281050  RH  085%=      5-min Rain = 0
KCO2 171049Z 35005KT M03/M05 A3012 RMK A01 T10281050  RH  085%=      5-min Rain = 0
KCO2 171050Z 34004KT M03/M05 A3012 RMK A01 T10281050  RH  085%=      5-min Rain = 0
KCO2 171051Z 34005KT M03/M05 A3012 RMK A01 T10301052  RH  085%=      5-min Rain = 0
KCO2 171052Z 34005KT M03/M05 A3012 RMK A01 T10311052  RH  085%=      5-min Rain = 0
KCO2 171053Z 34005KT M03/M05 A3012 RMK A01 T10311052  RH  085%=      5-min Rain = 0
KCO2 171054Z 34005KT M03/M05 A3012 RMK A01 T10321052  RH  086%=      5-min Rain = 0
KCO2 171055Z 34005KT M03/M05 A3012 RMK A01 T10321052  RH  086%=      5-min Rain = 0
KCO2 171056Z 34006KT M03/M05 A3012 RMK A01 T10321052  RH  086%=      5-min Rain = 0
KCO2 171057Z 34006KT M03/M05 A3012 RMK A01 T10321051  RH  087%=      5-min Rain = 0
KCO2 171058Z 35006KT M03/M05 A3012 RMK A01 T10321051  RH  087%=      5-min Rain = 0
KCO2 171059Z 35006KT M03/M05 A3012 RMK A01 T10321051  RH  086%=      5-min Rain = 0
KCO2 171100Z 35006KT M03/M05 A3012 RMK A01 T10311051  RH  086%=      5-min Rain = 0
KCO2 171101Z 34006KT M03/M05 A3012 RMK A01 T10311051  RH  086%=      5-min Rain = 0
KCO2 171102Z 34005KT M03/M05 A3012 RMK A01 T10311051  RH  086%=      5-min Rain = 0
KCO2 171103Z 34005KT M03/M05 A3012 RMK A01 T10311051  RH  086%=      5-min Rain = 0
KCO2 171104Z 34005KT M03/M05 A3012 RMK A01 T10321052  RH  086%=      5-min Rain = 0
KCO2 171105Z 35005KT M03/M05 A3012 RMK A01 T10321052  RH  086%=      5-min Rain = 0
KCO2 171106Z 35005KT M03/M05 A3012 RMK A01 T10321051  RH  086%=      5-min Rain = 0
KCO2 171107Z 35006KT M03/M05 A3012 RMK A01 T10321051  RH  087%=      5-min Rain = 0
KCO2 171108Z 35006KT M03/M05 A3012 RMK A01 T10321051  RH  087%=      5-min Rain = 0
KCO2 171109Z 35005KT M03/M05 A3012 RMK A01 T10311051  RH  086%=      5-min Rain = 0
KCO2 171110Z 35005KT M03/M05 A3012 RMK A01 T10311051  RH  086%=      5-min Rain = 0
KCO2 171111Z 35005KT M03/M05 A3012 RMK A01 T10321052  RH  086%=      5-min Rain = 0
KCO2 171112Z 35005KT M03/M05 A3012 RMK A01 T10321052  RH  086%=      5-min Rain = 0
KCO2 171113Z 34005KT M03/M05 A3012 RMK A01 T10321051  RH  086%=      5-min Rain = 0
KCO2 171114Z 34005KT M03/M05 A3012 RMK A01 T10321052  RH  086%=      5-min Rain = 0
KCO2 171115Z 34005KT M03/M05 A3012 RMK A01 T10331052  RH  086%=      5-min Rain = 0
KCO2 171116Z 34005KT M03/M05 A3012 RMK A01 T10331053  RH  086%=      5-min Rain = 0
KCO2 171117Z 34005KT M03/M05 A3012 RMK A01 T10331053  RH  087%=      5-min Rain = 0
KCO2 171118Z 33005KT M03/M05 A3012 RMK A01 T10331052  RH  087%=      5-min Rain = 0
KCO2 171119Z 33006KT M03/M05 A3012 RMK A01 T10331052  RH  087%=      5-min Rain = 0
KCO2 171120Z 33006KT M03/M05 A3012 RMK A01 T10341052  RH  087%=      5-min Rain = 0
KCO2 171121Z 33006KT M03/M05 A3012 RMK A01 T10341052  RH  087%=      5-min Rain = 0
KCO2 171122Z 33007KT M03/M05 A3012 RMK A01 T10341053  RH  087%=      5-min Rain = 0
KCO2 171123Z 33007KT M03/M05 A3012 RMK A01 T10341053  RH  087%=      5-min Rain = 0
KCO2 171124Z 33008KT M03/M05 A3013 RMK A01 T10341052  RH  087%=      5-min Rain = 0
KCO2 171125Z 33008KT M03/M05 A3013 RMK A01 T10341053  RH  087%=      5-min Rain = 0
KCO2 171126Z 33008KT M03/M05 A3012 RMK A01 T10341052  RH  087%=      5-min Rain = 0
KCO2 171127Z 33008KT M03/M05 A3012 RMK A01 T10331051  RH  087%=      5-min Rain = 0
KCO2 171128Z 33008KT M03/M05 A3012 RMK A01 T10321051  RH  087%=      5-min Rain = 0
KCO2 171129Z 34008KT M03/M05 A3012 RMK A01 T10311050  RH  087%=      5-min Rain = 0
KCO2 171130Z 34007KT M03/M05 A3012 RMK A01 T10311050  RH  087%=      5-min Rain = 0
KCO2 171131Z 34007KT M03/M05 A3012 RMK A01 T10311051  RH  086%=      5-min Rain = 0
KCO2 171132Z 33007KT M03/M05 A3012 RMK A01 T10311051  RH  086%=      5-min Rain = 0
KCO2 171133Z 33007KT M03/M05 A3013 RMK A01 T10301051  RH  086%=      5-min Rain = 0
KCO2 171134Z 33006KT M03/M05 A3013 RMK A01 T10301051  RH  086%=      5-min Rain = 0
KCO2 171135Z 33006KT M03/M05 A3013 RMK A01 T10311052  RH  085%=      5-min Rain = 0
KCO2 171136Z 33006KT M03/M05 A3013 RMK A01 T10311052  RH  085%=      5-min Rain = 0
KCO2 171137Z 33006KT M03/M05 A3013 RMK A01 T10321053  RH  086%=      5-min Rain = 0
KCO2 171138Z 33006KT M03/M05 A3013 RMK A01 T10331053  RH  086%=      5-min Rain = 0
KCO2 171139Z 33006KT M03/M05 A3013 RMK A01 T10331053  RH  086%=      5-min Rain = 0
KCO2 171140Z 33006KT M03/M05 A3013 RMK A01 T10331053  RH  086%=      5-min Rain = 0
KCO2 171141Z 33005KT M03/M05 A3013 RMK A01 T10341054  RH  086%=      5-min Rain = 0
KCO2 171142Z 33005KT M03/M05 A3013 RMK A01 T10341054  RH  086%=      5-min Rain = 0
KCO2 171143Z 33005KT M04/M06 A3013 RMK A01 T10351055  RH  086%=      5-min Rain = 0
KCO2 171144Z 33006KT M04/M06 A3013 RMK A01 T10361055  RH  087%=      5-min Rain = 0
KCO2 171145Z 33006KT M04/M06 A3013 RMK A01 T10371055  RH  087%=      5-min Rain = 0
KCO2 171146Z 33006KT M04/M06 A3013 RMK A01 T10371056  RH  087%=      5-min Rain = 0
KCO2 171147Z 33006KT M04/M06 A3013 RMK A01 T10371055  RH  087%=      5-min Rain = 0
KCO2 171148Z 33005KT M04/M06 A3013 RMK A01 T10381056  RH  088%=      5-min Rain = 0
KCO2 171149Z 32005KT M04/M06 A3013 RMK A01 T10391056  RH  088%=      5-min Rain = 0
KCO2 171150Z 32005KT M04/M06 A3013 RMK A01 T10391056  RH  088%=      5-min Rain = 0
KCO2 171151Z 32005KT M04/M06 A3013 RMK A01 T10391056  RH  088%=      5-min Rain = 0
KCO2 171152Z 32005KT M04/M06 A3013 RMK A01 T10401056  RH  088%=      5-min Rain = 0
KCO2 171153Z 32005KT M04/M06 A3013 RMK A01 T10401057  RH  088%=      5-min Rain = 0
KCO2 171154Z 32005KT M04/M06 A3013 RMK A01 T10401056  RH  089%=      5-min Rain = 0
KCO2 171155Z 31006KT M04/M06 A3013 RMK A01 T10401056  RH  089%=      5-min Rain = 0
KCO2 171156Z 31006KT M04/M06 A3013 RMK A01 T10411056  RH  089%=      5-min Rain = 0
KCO2 171157Z 31006KT M04/M06 A3013 RMK A01 T10411057  RH  089%=      5-min Rain = 0
KCO2 171158Z 32005KT M04/M06 A3013 RMK A01 T10421057  RH  089%=      5-min Rain = 0
KCO2 171159Z 31005KT M04/M06 A3013 RMK A01 T10421057  RH  089%=      5-min Rain = 0
KCO2 171200Z 31005KT M04/M06 A3013 RMK A01 T10421058  RH  089%=      5-min Rain = 0
KCO2 171201Z 31005KT M04/M06 A3013 RMK A01 T10421057  RH  089%=      5-min Rain = 0
KCO2 171202Z 31005KT M04/M06 A3013 RMK A01 T10421057  RH  089%=      5-min Rain = 0
KCO2 171203Z 31005KT M04/M06 A3013 RMK A01 T10421057  RH  089%=      5-min Rain = 0
KCO2 171204Z 31005KT M04/M06 A3013 RMK A01 T10421057  RH  089%=      5-min Rain = 0
KCO2 171205Z 31005KT M04/M06 A3013 RMK A01 T10421057  RH  089%=      5-min Rain = 0
KCO2 171206Z 31005KT M04/M06 A3013 RMK A01 T10421057  RH  089%=      5-min Rain = 0
KCO2 171207Z 31005KT M04/M06 A3013 RMK A01 T10421057  RH  089%=      5-min Rain = 0
KCO2 171208Z 31005KT M04/M06 A3013 RMK A01 T10431057  RH  090%=      5-min Rain = 0
KCO2 171209Z 31005KT M04/M06 A3013 RMK A01 T10421056  RH  090%=      5-min Rain = 0
KCO2 171210Z 30005KT M04/M06 A3013 RMK A01 T10421056  RH  090%=      5-min Rain = 0
KCO2 171211Z 30005KT M04/M06 A3013 RMK A01 T10421057  RH  089%=      5-min Rain = 0
KCO2 171212Z 31005KT M04/M06 A3013 RMK A01 T10421056  RH  089%=      5-min Rain = 0
KCO2 171213Z 31005KT M04/M06 A3013 RMK A01 T10411056  RH  090%=      5-min Rain = 0
KCO2 171214Z 31005KT M04/M06 A3013 RMK A01 T10411055  RH  090%=      5-min Rain = 0
KCO2 171215Z 32005KT M04/M06 A3013 RMK A01 T10411056  RH  089%=      5-min Rain = 0
KCO2 171216Z 32005KT M04/M06 A3013 RMK A01 T10401055  RH  089%=      5-min Rain = 0
KCO2 171217Z 32005KT M04/M06 A3013 RMK A01 T10401055  RH  089%=      5-min Rain = 0
KCO2 171218Z 32005KT M04/M05 A3013 RMK A01 T10391054  RH  089%=      5-min Rain = 0
KCO2 171219Z 32006KT M04/M05 A3013 RMK A01 T10391054  RH  089%=      5-min Rain = 0
KCO2 171220Z 32006KT M04/M05 A3013 RMK A01 T10381054  RH  089%=      5-min Rain = 0
KCO2 171221Z 32006KT M04/M06 A3013 RMK A01 T10381055  RH  088%=      5-min Rain = 0
KCO2 171222Z 32005KT M04/M06 A3013 RMK A01 T10381055  RH  088%=      5-min Rain = 0
KCO2 171223Z 31005KT M04/M06 A3013 RMK A01 T10381055  RH  088%=      5-min Rain = 0
KCO2 171224Z 31005KT M04/M06 A3013 RMK A01 T10371055  RH  088%=      5-min Rain = 0
KCO2 171225Z 31005KT M04/M06 A3013 RMK A01 T10371055  RH  088%=      5-min Rain = 0
KCO2 171226Z 31004KT M04/M06 A3013 RMK A01 T10371055  RH  087%=      5-min Rain = 0
KCO2 171227Z 32004KT M04/M05 A3013 RMK A01 T10361054  RH  087%=      5-min Rain = 0
KCO2 171228Z 32004KT M04/M05 A3013 RMK A01 T10351054  RH  087%=      5-min Rain = 0
KCO2 171229Z 33004KT M04/M05 A3013 RMK A01 T10351054  RH  087%=      5-min Rain = 0
KCO2 171230Z 33004KT M03/M05 A3013 RMK A01 T10341054  RH  086%=      5-min Rain = 0
KCO2 171231Z 32005KT M03/M05 A3013 RMK A01 T10341054  RH  086%=      5-min Rain = 0
KCO2 171232Z 32005KT M03/M05 A3013 RMK A01 T10341054  RH  086%=      5-min Rain = 0
KCO2 171233Z 32005KT M03/M05 A3013 RMK A01 T10341054  RH  086%=      5-min Rain = 0
KCO2 171234Z 33005KT M03/M06 A3014 RMK A01 T10331055  RH  085%=      5-min Rain = 0
KCO2 171235Z 33005KT M03/M06 A3014 RMK A01 T10341055  RH  085%=      5-min Rain = 0
KCO2 171236Z 33005KT M03/M06 A3014 RMK A01 T10341055  RH  085%=      5-min Rain = 0
KCO2 171237Z 33006KT M03/M06 A3014 RMK A01 T10341056  RH  085%=      5-min Rain = 0
KCO2 171238Z 32006KT M03/M06 A3014 RMK A01 T10341056  RH  085%=      5-min Rain = 0
KCO2 171239Z 32006KT M04/M06 A3014 RMK A01 T10351056  RH  085%=      5-min Rain = 0
KCO2 171240Z 33007KT M04/M06 A3014 RMK A01 T10351056  RH  085%=      5-min Rain = 0
KCO2 171241Z 33006KT M03/M06 A3013 RMK A01 T10341055  RH  086%=      5-min Rain = 0
KCO2 171242Z 32006KT M03/M06 A3013 RMK A01 T10341055  RH  086%=      5-min Rain = 0
KCO2 171243Z 32006KT M03/M06 A3013 RMK A01 T10341055  RH  086%=      5-min Rain = 0
KCO2 171244Z 32007KT M03/M05 A3013 RMK A01 T10331054  RH  086%=      5-min Rain = 0
KCO2 171245Z 33007KT M03/M05 A3014 RMK A01 T10331054  RH  086%=      5-min Rain = 0
KCO2 171246Z 33007KT M03/M05 A3014 RMK A01 T10331054  RH  086%=      5-min Rain = 0
KCO2 171247Z 34006KT M03/M05 A3014 RMK A01 T10331053  RH  086%=      5-min Rain = 0
KCO2 171248Z 33005KT M03/M06 A3014 RMK A01 T10341055  RH  086%=      5-min Rain = 0
KCO2 171249Z 32005KT M04/M06 A3014 RMK A01 T10351056  RH  086%=      5-min Rain = 0
KCO2 171250Z 32006KT M04/M06 A3014 RMK A01 T10351055  RH  086%=      5-min Rain = 0
KCO2 171251Z 33006KT M04/M06 A3014 RMK A01 T10351055  RH  087%=      5-min Rain = 0
KCO2 171252Z 33006KT M04/M05 A3014 RMK A01 T10351054  RH  087%=      5-min Rain = 0
KCO2 171253Z 34006KT M04/M05 A3014 RMK A01 T10351054  RH  087%=      5-min Rain = 0
KCO2 171254Z 34006KT M04/M05 A3014 RMK A01 T10351054  RH  087%=      5-min Rain = 0
KCO2 171255Z 33007KT M04/M05 A3014 RMK A01 T10351054  RH  087%=      5-min Rain = 0
KCO2 171256Z 34006KT M04/M05 A3014 RMK A01 T10351054  RH  087%=      5-min Rain = 0
KCO2 171257Z 34006KT M04/M06 A3014 RMK A01 T10361055  RH  087%=      5-min Rain = 0
KCO2 171258Z 35008KT M04/M06 A3015 RMK A01 T10371056  RH  087%=      5-min Rain = 0
KCO2 171259Z 36011KT M04/M06 A3015 RMK A01 T10371055  RH  087%=      5-min Rain = 0
KCO2 171300Z 36009KT M04/M05 A3015 RMK A01 T10361054  RH  087%=      5-min Rain = 0
KCO2 171301Z 36008KT M03/M05 A3015 RMK A01 T10341052  RH  087%=      5-min Rain = 0
KCO2 171302Z 35008KT M03/M05 A3015 RMK A01 T10321051  RH  087%=      5-min Rain = 0
KCO2 171303Z 35009KT M03/M05 A3015 RMK A01 T10311050  RH  087%=      5-min Rain = 0
KCO2 171304Z 35008KT M03/M05 A3015 RMK A01 T10301050  RH  086%=      5-min Rain = 0
KCO2 171305Z 36008KT M03/M05 A3015 RMK A01 T10291049  RH  086%=      5-min Rain = 0
KCO2 171306Z 36007KT M03/M05 A3015 RMK A01 T10281049  RH  086%=      5-min Rain = 0
KCO2 171307Z 36008KT M03/M05 A3015 RMK A01 T10281049  RH  085%=      5-min Rain = 0
KCO2 171308Z 36007KT M03/M05 A3015 RMK A01 T10281050  RH  085%=      5-min Rain = 0
KCO2 171309Z 36007KT M03/M05 A3016 RMK A01 T10271050  RH  084%=      5-min Rain = 0
KCO2 171310Z 35008KT M03/M05 A3016 RMK A01 T10261050  RH  084%=      5-min Rain = 0
KCO2 171311Z 35008KT M03/M05 A3016 RMK A01 T10261050  RH  084%=      5-min Rain = 0
KCO2 171312Z 35006KT M03/M05 A3016 RMK A01 T10261051  RH  083%=      5-min Rain = 0
KCO2 171313Z 35007KT M03/M05 A3016 RMK A01 T10271051  RH  083%=      5-min Rain = 0
KCO2 171314Z 35007KT M03/M05 A3016 RMK A01 T10271051  RH  083%=      5-min Rain = 0
KCO2 171315Z 35007KT M03/M05 A3016 RMK A01 T10271052  RH  083%=      5-min Rain = 0
KCO2 171316Z 35007KT M03/M05 A3016 RMK A01 T10281052  RH  083%=      5-min Rain = 0
KCO2 171317Z 35007KT M03/M05 A3016 RMK A01 T10281052  RH  083%=      5-min Rain = 0
KCO2 171318Z 35007KT M03/M05 A3016 RMK A01 T10281052  RH  084%=      5-min Rain = 0
KCO2 171319Z 35007KT M03/M05 A3016 RMK A01 T10281052  RH  084%=      5-min Rain = 0
KCO2 171320Z 35007KT M03/M05 A3016 RMK A01 T10291053  RH  084%=      5-min Rain = 0
KCO2 171321Z 35007KT M03/M05 A3016 RMK A01 T10301053  RH  084%=      5-min Rain = 0
KCO2 171322Z 35007KT M03/M05 A3016 RMK A01 T10301053  RH  084%=      5-min Rain = 0
KCO2 171323Z 34007KT M03/M05 A3016 RMK A01 T10311054  RH  084%=      5-min Rain = 0
KCO2 171324Z 35006KT M03/M05 A3016 RMK A01 T10311054  RH  084%=      5-min Rain = 0
KCO2 171325Z 35006KT M03/M06 A3016 RMK A01 T10321055  RH  084%=      5-min Rain = 0
KCO2 171326Z 35005KT M03/M05 A3016 RMK A01 T10321054  RH  085%=      5-min Rain = 0
KCO2 171327Z 34006KT M03/M06 A3016 RMK A01 T10321055  RH  085%=      5-min Rain = 0
KCO2 171328Z 34006KT M03/M06 A3016 RMK A01 T10331055  RH  085%=      5-min Rain = 0
KCO2 171329Z 34006KT M03/M06 A3016 RMK A01 T10341056  RH  085%=      5-min Rain = 0
KCO2 171330Z 34006KT M03/M06 A3016 RMK A01 T10341055  RH  085%=      5-min Rain = 0
KCO2 171331Z 34006KT M03/M06 A3016 RMK A01 T10341056  RH  085%=      5-min Rain = 0
KCO2 171332Z 35006KT M03/M06 A3016 RMK A01 T10341055  RH  085%=      5-min Rain = 0
KCO2 171333Z 35005KT M04/M06 A3016 RMK A01 T10351056  RH  085%=      5-min Rain = 0
KCO2 171334Z 34004KT M04/M06 A3016 RMK A01 T10351056  RH  085%=      5-min Rain = 0
KCO2 171335Z 35004KT M04/M06 A3016 RMK A01 T10351056  RH  086%=      5-min Rain = 0
KCO2 171336Z 34005KT M04/M06 A3016 RMK A01 T10361056  RH  086%=      5-min Rain = 0
KCO2 171337Z 34005KT M04/M06 A3017 RMK A01 T10361057  RH  086%=      5-min Rain = 0
KCO2 171338Z 34005KT M04/M06 A3017 RMK A01 T10371057  RH  086%=      5-min Rain = 0
KCO2 171339Z 34006KT M04/M06 A3017 RMK A01 T10381058  RH  086%=      5-min Rain = 0
KCO2 171340Z 35005KT M04/M06 A3017 RMK A01 T10391059  RH  086%=      5-min Rain = 0
KCO2 171341Z 34004KT M04/M06 A3016 RMK A01 T10391059  RH  086%=      5-min Rain = 0
KCO2 171342Z 34004KT M04/M06 A3017 RMK A01 T10391058  RH  087%=      5-min Rain = 0
KCO2 171343Z 33004KT M04/M06 A3017 RMK A01 T10391058  RH  087%=      5-min Rain = 0
KCO2 171344Z 33004KT M04/M06 A3017 RMK A01 T10401059  RH  087%=      5-min Rain = 0
KCO2 171345Z 33004KT M04/M06 A3017 RMK A01 T10411060  RH  087%=      5-min Rain = 0
KCO2 171346Z 33005KT M04/M06 A3017 RMK A01 T10421060  RH  087%=      5-min Rain = 0
KCO2 171347Z 34005KT M04/M06 A3017 RMK A01 T10421060  RH  087%=      5-min Rain = 0
KCO2 171348Z 34005KT M04/M06 A3017 RMK A01 T10421060  RH  088%=      5-min Rain = 0
KCO2 171349Z 34005KT M04/M06 A3017 RMK A01 T10431060  RH  088%=      5-min Rain = 0
KCO2 171350Z 34005KT M04/M06 A3017 RMK A01 T10431059  RH  088%=      5-min Rain = 0
KCO2 171351Z 34005KT M04/M06 A3017 RMK A01 T10421059  RH  088%=      5-min Rain = 0
KCO2 171352Z 35005KT M04/M06 A3017 RMK A01 T10421058  RH  088%=      5-min Rain = 0
KCO2 171353Z 35005KT M04/M06 A3017 RMK A01 T10421058  RH  088%=      5-min Rain = 0
KCO2 171354Z 35005KT M04/M06 A3017 RMK A01 T10411058  RH  088%=      5-min Rain = 0
KCO2 171355Z 35005KT M04/M06 A3017 RMK A01 T10411058  RH  088%=      5-min Rain = 0
KCO2 171356Z 35005KT M04/M06 A3017 RMK A01 T10411058  RH  088%=      5-min Rain = 0
KCO2 171357Z 35004KT M04/M06 A3017 RMK A01 T10411058  RH  088%=      5-min Rain = 0
KCO2 171358Z 34004KT M04/M06 A3017 RMK A01 T10401058  RH  088%=      5-min Rain = 0
KCO2 171359Z 35004KT M04/M06 A3017 RMK A01 T10401058  RH  088%=      5-min Rain = 0
KCO2 171400Z 35004KT M04/M06 A3017 RMK A01 T10401057  RH  088%=      5-min Rain = 0
KCO2 171401Z 35004KT M04/M06 A3018 RMK A01 T10391057  RH  088%=      5-min Rain = 0
KCO2 171402Z 35005KT M04/M06 A3018 RMK A01 T10391056  RH  088%=      5-min Rain = 0
KCO2 171403Z 35004KT M04/M06 A3017 RMK A01 T10381055  RH  088%=      5-min Rain = 0
KCO2 171404Z 35004KT M04/M06 A3017 RMK A01 T10371055  RH  087%=      5-min Rain = 0
KCO2 171405Z 35004KT M04/M06 A3017 RMK A01 T10371055  RH  087%=      5-min Rain = 0
KCO2 171406Z 35004KT M04/M05 A3017 RMK A01 T10361054  RH  087%=      5-min Rain = 0
KCO2 171407Z 35004KT M04/M05 A3017 RMK A01 T10351054  RH  087%=      5-min Rain = 0
KCO2 171408Z 35004KT M03/M05 A3017 RMK A01 T10341054  RH  086%=      5-min Rain = 0
KCO2 171409Z 36004KT M03/M05 A3017 RMK A01 T10331053  RH  086%=      5-min Rain = 0
KCO2 171410Z 35004KT M03/M05 A3017 RMK A01 T10321052  RH  086%=      5-min Rain = 0
KCO2 171411Z 35004KT M03/M05 A3017 RMK A01 T10311052  RH  085%=      5-min Rain = 0
KCO2 171412Z 34004KT M03/M05 A3017 RMK A01 T10301052  RH  085%=      5-min Rain = 0
KCO2 171413Z 34004KT M03/M05 A3017 RMK A01 T10291051  RH  085%=      5-min Rain = 0
KCO2 171414Z 35004KT M03/M05 A3017 RMK A01 T10271050  RH  084%=      5-min Rain = 0
KCO2 171415Z 35004KT M03/M05 A3017 RMK A01 T10261050  RH  084%=      5-min Rain = 0
KCO2 171416Z 36004KT M03/M05 A3017 RMK A01 T10251049  RH  083%=      5-min Rain = 0
KCO2 171417Z 36004KT M02/M05 A3017 RMK A01 T10231049  RH  083%=      5-min Rain = 0
KCO2 171418Z 00004KT M02/M05 A3017 RMK A01 T10221049  RH  082%=      5-min Rain = 0
KCO2 171419Z 00003KT M02/M05 A3017 RMK A01 T10211048  RH  082%=      5-min Rain = 0
KCO2 171420Z 35004KT M02/M05 A3017 RMK A01 T10201048  RH  081%=      5-min Rain = 0
KCO2 171421Z 35004KT M02/M05 A3017 RMK A01 T10181048  RH  080%=      5-min Rain = 0
KCO2 171422Z 36004KT M02/M05 A3017 RMK A01 T10171047  RH  080%=      5-min Rain = 0
KCO2 171423Z 00004KT M02/M05 A3017 RMK A01 T10161048  RH  079%=      5-min Rain = 0
KCO2 171424Z 00003KT M02/M05 A3017 RMK A01 T10151048  RH  078%=      5-min Rain = 0
KCO2 171425Z 01002KT M01/M05 A3017 RMK A01 T10141048  RH  078%=      5-min Rain = 0
KCO2 171426Z 02001KT M01/M05 A3017 RMK A01 T10131047  RH  078%=      5-min Rain = 0
KCO2 171427Z 03001KT M01/M05 A3017 RMK A01 T10121046  RH  078%=      5-min Rain = 0
KCO2 171428Z 03003KT M01/M05 A3017 RMK A01 T10121046  RH  078%=      5-min Rain = 0
KCO2 171429Z 02002KT M01/M05 A3017 RMK A01 T10111046  RH  077%=      5-min Rain = 0
KCO2 171430Z 01002KT M01/M05 A3017 RMK A01 T10101046  RH  077%=      5-min Rain = 0
KCO2 171431Z 01003KT M01/M05 A3017 RMK A01 T10101045  RH  077%=      5-min Rain = 0
KCO2 171432Z 01003KT M01/M05 A3017 RMK A01 T10101045  RH  077%=      5-min Rain = 0
KCO2 171433Z 00003KT M01/M05 A3017 RMK A01 T10091045  RH  076%=      5-min Rain = 0
KCO2 171434Z 00003KT M01/M05 A3017 RMK A01 T10091046  RH  076%=      5-min Rain = 0
KCO2 171435Z 00002KT M01/M05 A3017 RMK A01 T10091047  RH  076%=      5-min Rain = 0
KCO2 171436Z 36003KT M01/M05 A3017 RMK A01 T10091046  RH  076%=      5-min Rain = 0
KCO2 171437Z 00004KT M01/M05 A3017 RMK A01 T10091046  RH  076%=      5-min Rain = 0
KCO2 171438Z 36004KT M01/M05 A3017 RMK A01 T10091046  RH  076%=      5-min Rain = 0
KCO2 171439Z 00004KT M01/M05 A3017 RMK A01 T10091046  RH  076%=      5-min Rain = 0
KCO2 171440Z 36004KT M01/M05 A3017 RMK A01 T10091045  RH  076%=      5-min Rain = 0
KCO2 171441Z 36004KT M01/M05 A3017 RMK A01 T10091045  RH  076%=      5-min Rain = 0
KCO2 171442Z 00004KT M01/M05 A3017 RMK A01 T10091045  RH  077%=      5-min Rain = 0
KCO2 171443Z 00004KT M01/M05 A3017 RMK A01 T10091045  RH  077%=      5-min Rain = 0
KCO2 171444Z 35004KT M01/M04 A3017 RMK A01 T10081044  RH  077%=      5-min Rain = 0
KCO2 171445Z 35004KT M01/M04 A3017 RMK A01 T10081044  RH  077%=      5-min Rain = 0
KCO2 171446Z 35004KT M01/M04 A3018 RMK A01 T10071043  RH  077%=      5-min Rain = 0
KCO2 171447Z 35004KT M01/M04 A3018 RMK A01 T10071043  RH  076%=      5-min Rain = 0
KCO2 171448Z 35003KT M01/M04 A3018 RMK A01 T10071043  RH  076%=      5-min Rain = 0
KCO2 171449Z 36003KT M01/M04 A3018 RMK A01 T10061043  RH  076%=      5-min Rain = 0
KCO2 171450Z 36003KT M01/M04 A3018 RMK A01 T10061043  RH  076%=      5-min Rain = 0
KCO2 171451Z 35003KT M01/M04 A3018 RMK A01 T10051042  RH  076%=      5-min Rain = 0
KCO2 171452Z 36004KT M01/M04 A3018 RMK A01 T10051042  RH  076%=      5-min Rain = 0
KCO2 171453Z 35004KT M00/M04 A3018 RMK A01 T10031041  RH  076%=      5-min Rain = 0
KCO2 171454Z 35004KT M00/M04 A3018 RMK A01 T10021040  RH  076%=      5-min Rain = 0
KCO2 171455Z 36004KT M00/M04 A3018 RMK A01 T10011040  RH  075%=      5-min Rain = 0
KCO2 171456Z 36003KT M00/M04 A3018 RMK A01 T10011040  RH  075%=      5-min Rain = 0
KCO2 171457Z 35003KT 00/04 A3018 RMK A01 T00000-39  RH  075%=      5-min Rain = 0
KCO2 171458Z 35002KT 00/M04 A3018 RMK A01 T00011039  RH  074%=      5-min Rain = 0
KCO2 171459Z 35003KT 00/M04 A3018 RMK A01 T00021039  RH  074%=      5-min Rain = 0
KCO2 171500Z 36004KT 00/M04 A3019 RMK A01 T00031039  RH  074%=      5-min Rain = 0
KCO2 171501Z 36004KT 00/M04 A3019 RMK A01 T00041037  RH  074%=      5-min Rain = 0
KCO2 171502Z 00004KT 01/M04 A3019 RMK A01 T00051036  RH  074%=      5-min Rain = 0
KCO2 171503Z 36003KT 01/M04 A3019 RMK A01 T00061037  RH  073%=      5-min Rain = 0
KCO2 171504Z 36003KT 01/M04 A3019 RMK A01 T00071037  RH  072%=      5-min Rain = 0
KCO2 171505Z 36003KT 01/M04 A3019 RMK A01 T00081038  RH  072%=      5-min Rain = 0
KCO2 171506Z 35003KT 01/M04 A3019 RMK A01 T00091036  RH  072%=      5-min Rain = 0
KCO2 171507Z 34003KT 01/M04 A3019 RMK A01 T00101036  RH  071%=      5-min Rain = 0
KCO2 171508Z 34004KT 01/M04 A3019 RMK A01 T00111036  RH  071%=      5-min Rain = 0
KCO2 171509Z 34003KT 01/M04 A3019 RMK A01 T00111037  RH  070%=      5-min Rain = 0
KCO2 171510Z 34003KT 01/M04 A3019 RMK A01 T00111036  RH  071%=      5-min Rain = 0
KCO2 171511Z 34003KT 01/M04 A3019 RMK A01 T00121036  RH  070%=      5-min Rain = 0
KCO2 171512Z 35003KT 01/M04 A3019 RMK A01 T00121036  RH  070%=      5-min Rain = 0
KCO2 171513Z 35004KT 01/M04 A3019 RMK A01 T00131035  RH  070%=      5-min Rain = 0
KCO2 171514Z 35004KT 01/M04 A3019 RMK A01 T00141035  RH  070%=      5-min Rain = 0
KCO2 171515Z 35004KT 02/M03 A3019 RMK A01 T00151034  RH  070%=      5-min Rain = 0
KCO2 171516Z 36003KT 02/M03 A3019 RMK A01 T00161033  RH  070%=      5-min Rain = 0
KCO2 171517Z 00004KT 02/M03 A3019 RMK A01 T00171033  RH  069%=      5-min Rain = 0
KCO2 171518Z 01003KT 02/M03 A3019 RMK A01 T00181034  RH  069%=      5-min Rain = 0
KCO2 171519Z 00003KT 02/M04 A3019 RMK A01 T00181035  RH  068%=      5-min Rain = 0
KCO2 171520Z 00004KT 02/M04 A3019 RMK A01 T00181035  RH  067%=      5-min Rain = 0
KCO2 171521Z 00003KT 02/M03 A3019 RMK A01 T00191034  RH  068%=      5-min Rain = 0
KCO2 171522Z 00004KT 02/M03 A3019 RMK A01 T00201033  RH  068%=      5-min Rain = 0
KCO2 171523Z 01004KT 02/M03 A3019 RMK A01 T00201033  RH  068%=      5-min Rain = 0
KCO2 171524Z 36003KT 02/M03 A3019 RMK A01 T00221033  RH  067%=      5-min Rain = 0
KCO2 171525Z 36003KT 02/M03 A3019 RMK A01 T00221033  RH  067%=      5-min Rain = 0
KCO2 171526Z 36003KT 02/M03 A3019 RMK A01 T00221033  RH  067%=      5-min Rain = 0
KCO2 171527Z 35004KT 02/M03 A3019 RMK A01 T00231032  RH  067%=      5-min Rain = 0
KCO2 171528Z 36004KT 02/M03 A3019 RMK A01 T00231032  RH  067%=      5-min Rain = 0
KCO2 171529Z 36005KT 02/M03 A3019 RMK A01 T00241031  RH  067%=      5-min Rain = 0
KCO2 171530Z 00005KT 03/M03 A3019 RMK A01 T00251031  RH  067%=      5-min Rain = 0
KCO2 171531Z 00005KT 03/M03 A3019 RMK A01 T00251032  RH  066%=      5-min Rain = 0
KCO2 171532Z 00003KT 03/M03 A3019 RMK A01 T00251031  RH  066%=      5-min Rain = 0
KCO2 171533Z 01004KT 03/M03 A3019 RMK A01 T00261030  RH  066%=      5-min Rain = 0
KCO2 171534Z 01003KT 03/M03 A302 RMK A01 T00271030  RH  066%=      5-min Rain = 0
KCO2 171535Z 01004KT 03/M03 A302 RMK A01 T00291028  RH  066%=      5-min Rain = 0
KCO2 171536Z 00004KT 03/M03 A302 RMK A01 T00311027  RH  066%=      5-min Rain = 0
KCO2 171537Z 00004KT 03/M03 A302 RMK A01 T00311029  RH  065%=      5-min Rain = 0
KCO2 171538Z 01004KT 03/M03 A302 RMK A01 T00311029  RH  065%=      5-min Rain = 0
KCO2 171539Z 35003KT 03/M03 A302 RMK A01 T00311029  RH  065%=      5-min Rain = 0
KCO2 171540Z 36004KT 03/M03 A302 RMK A01 T00331027  RH  065%=      5-min Rain = 0
KCO2 171541Z 35004KT 03/M03 A302 RMK A01 T00331028  RH  064%=      5-min Rain = 0
KCO2 171542Z 35004KT 03/M03 A302 RMK A01 T00331027  RH  064%=      5-min Rain = 0
KCO2 171543Z 00003KT 03/M03 A302 RMK A01 T00341026  RH  064%=      5-min Rain = 0
KCO2 171544Z 00004KT 04/M03 A302 RMK A01 T00351025  RH  065%=      5-min Rain = 0
KCO2 171545Z 35003KT 04/M03 A302 RMK A01 T00361027  RH  064%=      5-min Rain = 0
KCO2 171546Z 34003KT 04/M03 A302 RMK A01 T00371026  RH  064%=      5-min Rain = 0
KCO2 171547Z 35003KT 04/M03 A302 RMK A01 T00381025  RH  064%=      5-min Rain = 0
KCO2 171548Z 36003KT 04/M03 A302 RMK A01 T00381025  RH  063%=      5-min Rain = 0
KCO2 171549Z 36003KT 04/M02 A302 RMK A01 T00401023  RH  064%=      5-min Rain = 0
KCO2 171550Z 36004KT 04/M02 A302 RMK A01 T00411023  RH  063%=      5-min Rain = 0
KCO2 171551Z 00003KT 04/M02 A302 RMK A01 T00411024  RH  062%=      5-min Rain = 0
KCO2 171552Z 00003KT 04/M02 A302 RMK A01 T00421022  RH  063%=      5-min Rain = 0
KCO2 171553Z 01004KT 04/M02 A302 RMK A01 T00441021  RH  063%=      5-min Rain = 0
KCO2 171554Z 36003KT 05/M02 A3021 RMK A01 T00451022  RH  062%=      5-min Rain = 0
KCO2 171555Z 02003KT 05/M02 A3021 RMK A01 T00461021  RH  062%=      5-min Rain = 0
KCO2 171556Z 36003KT 05/M02 A3021 RMK A01 T00471021  RH  061%=      5-min Rain = 0
KCO2 171557Z 01004KT 05/M02 A3021 RMK A01 T00491020  RH  061%=      5-min Rain = 0
KCO2 171558Z 35004KT 05/M02 A3021 RMK A01 T00501020  RH  060%=      5-min Rain = 0
KCO2 171559Z 01004KT 05/M02 A3021 RMK A01 T00511019  RH  060%=      5-min Rain = 0
KCO2 171600Z 01004KT 05/M02 A3021 RMK A01 T00531019  RH  060%=      5-min Rain = 0
KCO2 171601Z 02006KT 05/M02 A3021 RMK A01 T00531022  RH  058%=      5-min Rain = 0
KCO2 171602Z 01004KT 05/M02 A3021 RMK A01 T00531022  RH  058%=      5-min Rain = 0
KCO2 171603Z 01004KT 05/M02 A3021 RMK A01 T00541020  RH  059%=      5-min Rain = 0
KCO2 171604Z 01005KT 06/M02 A3021 RMK A01 T00571017  RH  059%=      5-min Rain = 0
KCO2 171605Z 00005KT 06/M02 A3021 RMK A01 T00581020  RH  057%=      5-min Rain = 0
KCO2 171606Z 01006KT 06/M02 A3021 RMK A01 T00581019  RH  058%=      5-min Rain = 0
KCO2 171607Z 01004KT 06/M02 A3021 RMK A01 T00591020  RH  057%=      5-min Rain = 0
KCO2 171608Z 01006KT 06/M02 A3021 RMK A01 T00601018  RH  057%=      5-min Rain = 0
KCO2 171609Z 01006KT 06/M02 A3022 RMK A01 T00611020  RH  056%=      5-min Rain = 0
KCO2 171610Z 01006KT 06/M02 A3022 RMK A01 T00621018  RH  056%=      5-min Rain = 0
KCO2 171611Z 01004KT 06/M02 A3022 RMK A01 T00641018  RH  056%=      5-min Rain = 0
KCO2 171612Z 02005KT 07/M02 A3022 RMK A01 T00661017  RH  056%=      5-min Rain = 0
KCO2 171613Z 03007KT 07/M02 A3022 RMK A01 T00661018  RH  055%=      5-min Rain = 0
KCO2 171614Z 03005KT 07/M02 A3022 RMK A01 T00661020  RH  054%=      5-min Rain = 0
KCO2 171615Z 03005KT 07/M02 A3022 RMK A01 T00651021  RH  054%=      5-min Rain = 0
KCO2 171616Z 03006KT 07/M02 A3022 RMK A01 T00651020  RH  055%=      5-min Rain = 0
KCO2 171617Z 04005KT 07/M02 A3022 RMK A01 T00661020  RH  054%=      5-min Rain = 0
KCO2 171618Z 04003KT 07/M02 A3022 RMK A01 T00681018  RH  054%=      5-min Rain = 0
KCO2 171619Z 04003KT 07/M02 A3022 RMK A01 T00691019  RH  054%=      5-min Rain = 0
KCO2 171620Z 03005KT 07/M02 A3022 RMK A01 T00701018  RH  054%=      5-min Rain = 0
KCO2 171621Z 04005KT 07/M02 A3022 RMK A01 T00711018  RH  053%=      5-min Rain = 0
KCO2 171622Z 05004KT 07/M02 A3022 RMK A01 T00721018  RH  053%=      5-min Rain = 0
KCO2 171623Z 05003KT 07/M02 A3022 RMK A01 T00741018  RH  052%=      5-min Rain = 0
KCO2 171624Z 05003KT 07/M02 A3021 RMK A01 T00741019  RH  052%=      5-min Rain = 0
KCO2 171625Z 04005KT 08/M02 A3021 RMK A01 T00751019  RH  051%=      5-min Rain = 0
KCO2 171626Z 05005KT 08/M02 A3021 RMK A01 T00761019  RH  051%=      5-min Rain = 0
KCO2 171627Z 07005KT 08/M02 A3021 RMK A01 T00761016  RH  052%=      5-min Rain = 0
KCO2 171628Z 07004KT 08/M02 A3021 RMK A01 T00781017  RH  051%=      5-min Rain = 0
KCO2 171629Z 08003KT 08/M02 A3021 RMK A01 T00781017  RH  051%=      5-min Rain = 0
KCO2 171630Z 07003KT 08/M02 A3021 RMK A01 T00791017  RH  051%=      5-min Rain = 0
KCO2 171631Z 07004KT 08/M02 A3021 RMK A01 T00781018  RH  051%=      5-min Rain = 0
KCO2 171632Z 07005KT 08/M02 A3021 RMK A01 T00791018  RH  050%=      5-min Rain = 0
KCO2 171633Z 07006KT 08/M02 A3021 RMK A01 T00821019  RH  049%=      5-min Rain = 0
KCO2 171634Z 07006KT 08/M02 A3021 RMK A01 T00831019  RH  049%=      5-min Rain = 0
KCO2 171635Z 07006KT 08/M02 A3021 RMK A01 T00831018  RH  049%=      5-min Rain = 0
KCO2 171636Z 06006KT 08/M02 A3021 RMK A01 T00831018  RH  049%=      5-min Rain = 0
KCO2 171637Z 07004KT 08/M02 A3021 RMK A01 T00831018  RH  049%=      5-min Rain = 0
KCO2 171638Z 09006KT 09/M02 A3021 RMK A01 T00851016  RH  049%=      5-min Rain = 0
KCO2 171639Z 09008KT 09/M02 A3021 RMK A01 T00901018  RH  047%=      5-min Rain = 0
KCO2 171640Z 09008KT 09/M03 A3021 RMK A01 T00921026  RH  043%=      5-min Rain = 0
KCO2 171641Z 08006KT 09/M03 A3021 RMK A01 T00911027  RH  043%=      5-min Rain = 0
KCO2 171642Z 07008KT 09/M03 A3021 RMK A01 T00911027  RH  043%=      5-min Rain = 0
KCO2 171643Z 07006KT 09/M03 A3021 RMK A01 T00911027  RH  043%=      5-min Rain = 0
KCO2 171644Z 08008KT 09/M03 A3021 RMK A01 T00921027  RH  043%=      5-min Rain = 0
KCO2 171645Z 09008KT 09/M03 A302 RMK A01 T00921031  RH  042%=      5-min Rain = 0
KCO2 171646Z 08007KT 09/M03 A302 RMK A01 T00931030  RH  042%=      5-min Rain = 0
KCO2 171647Z 08008KT 09/M03 A302 RMK A01 T00941032  RH  041%=      5-min Rain = 0
KCO2 171648Z 07007KT 09/M03 A302 RMK A01 T00941032  RH  041%=      5-min Rain = 0
KCO2 171649Z 09008KT 10/M03 A302 RMK A01 T00951028  RH  042%=      5-min Rain = 0
KCO2 171650Z 09007KT 10/M03 A302 RMK A01 T00961026  RH  042%=      5-min Rain = 0
KCO2 171651Z 08006KT 10/M03 A302 RMK A01 T00971027  RH  042%=      5-min Rain = 0
KCO2 171652Z 09006KT 10/M03 A302 RMK A01 T00971028  RH  041%=      5-min Rain = 0
KCO2 171653Z 09008KT 10/M03 A302 RMK A01 T00991028  RH  041%=      5-min Rain = 0
KCO2 171654Z 08006KT 10/M03 A302 RMK A01 T01001032  RH  039%=      5-min Rain = 0
KCO2 171655Z 07007KT 10/M04 A302 RMK A01 T01011036  RH  038%=      5-min Rain = 0
KCO2 171656Z 07006KT 10/M04 A302 RMK A01 T01011038  RH  037%=      5-min Rain = 0
KCO2 171657Z 07008KT 10/M04 A302 RMK A01 T01001036  RH  038%=      5-min Rain = 0
KCO2 171658Z 06009KT 10/M04 A302 RMK A01 T01001038  RH  038%=      5-min Rain = 0
KCO2 171659Z 09010KT 10/M04 A302 RMK A01 T00991039  RH  038%=      5-min Rain = 0
KCO2 171700Z 09012KT 10/M04 A302 RMK A01 T00991040  RH  037%=      5-min Rain = 0
KCO2 171701Z 09010KT 10/M05 A302 RMK A01 T01001045  RH  036%=      5-min Rain = 0
KCO2 171702Z 07008KT 10/M05 A302 RMK A01 T01011046  RH  035%=      5-min Rain = 0
KCO2 171703Z 07008KT 10/M05 A302 RMK A01 T01001045  RH  036%=      5-min Rain = 0
KCO2 171704Z 08008KT 10/M04 A302 RMK A01 T01011037  RH  038%=      5-min Rain = 0
KCO2 171705Z 08009KT 10/M04 A302 RMK A01 T01041038  RH  037%=      5-min Rain = 0
KCO2 171706Z 08009KT 10/M04 A302 RMK A01 T01041039  RH  036%=      5-min Rain = 0
KCO2 171707Z 08009KT 10/M04 A302 RMK A01 T01041040  RH  036%=      5-min Rain = 0
KCO2 171708Z 08010KT 11/M04 A302 RMK A01 T01061041  RH  035%=      5-min Rain = 0
KCO2 171709Z 09010KT 11/M04 A302 RMK A01 T01061043  RH  035%=      5-min Rain = 0
KCO2 171710Z 09009KT 11/M04 A302 RMK A01 T01061041  RH  035%=      5-min Rain = 0
KCO2 171711Z 08010KT 11/M04 A302 RMK A01 T01071040  RH  035%=      5-min Rain = 0
KCO2 171712Z 08007G13KT 11/M04 A302 RMK A01 T01101038  RH  035%=      5-min Rain = 0
KCO2 171713Z 07010KT 11/M04 A302 RMK A01 T01111039  RH  035%=      5-min Rain = 0
KCO2 171714Z 07010KT 11/M04 A302 RMK A01 T01091040  RH  035%=      5-min Rain = 0
KCO2 171715Z 08010KT 11/M04 A302 RMK A01 T01081041  RH  035%=      5-min Rain = 0
KCO2 171716Z 09009KT 11/M04 A302 RMK A01 T01081039  RH  036%=      5-min Rain = 0
KCO2 171717Z 11007KT 11/M04 A302 RMK A01 T01081038  RH  036%=      5-min Rain = 0
KCO2 171718Z 14004KT 11/M02 A302 RMK A01 T01091023  RH  040%=      5-min Rain = 0
KCO2 171719Z 10005G10KT 11/M02 A302 RMK A01 T01091015  RH  042%=      5-min Rain = 0
KCO2 171720Z 12007KT 11/M02 A302 RMK A01 T01091020  RH  041%=      5-min Rain = 0
KCO2 171721Z 11007KT 11/M02 A302 RMK A01 T01101022  RH  040%=      5-min Rain = 0
KCO2 171722Z 10006KT 11/M02 A302 RMK A01 T01131023  RH  039%=      5-min Rain = 0
KCO2 171723Z 09008KT 11/M03 A302 RMK A01 T01141027  RH  037%=      5-min Rain = 0
KCO2 171724Z 09009KT 11/M03 A302 RMK A01 T01121031  RH  037%=      5-min Rain = 0
KCO2 171725Z 09008KT 11/M03 A302 RMK A01 T01111032  RH  037%=      5-min Rain = 0
KCO2 171726Z 08010KT 11/M04 A302 RMK A01 T01121035  RH  036%=      5-min Rain = 0
KCO2 171727Z 08009G14KT 11/M04 A302 RMK A01 T01131042  RH  033%=      5-min Rain = 0
KCO2 171728Z 09012KT 11/M04 A302 RMK A01 T01131043  RH  033%=      5-min Rain = 0
KCO2 171729Z 08011KT 11/M05 A302 RMK A01 T01131045  RH  033%=      5-min Rain = 0
KCO2 171730Z 10009KT 11/M05 A302 RMK A01 T01111046  RH  033%=      5-min Rain = 0
KCO2 171731Z 09008KT 11/M05 A302 RMK A01 T01111045  RH  033%=      5-min Rain = 0
KCO2 171732Z 09010G15KT 11/M04 A302 RMK A01 T01131043  RH  033%=      5-min Rain = 0
KCO2 171733Z 09012KT 12/M05 A302 RMK A01 T01151045  RH  032%=      5-min Rain = 0
KCO2 171734Z 09009KT 12/M05 A302 RMK A01 T01151046  RH  032%=      5-min Rain = 0
KCO2 171735Z 08007KT 12/M05 A302 RMK A01 T01151045  RH  032%=      5-min Rain = 0
KCO2 171736Z 06010KT 12/M04 A302 RMK A01 T01151043  RH  033%=      5-min Rain = 0
KCO2 171737Z 06011KT 12/M05 A302 RMK A01 T01151046  RH  032%=      5-min Rain = 0
KCO2 171738Z 07010KT 11/M05 A302 RMK A01 T01131047  RH  032%=      5-min Rain = 0
KCO2 171739Z 07010KT 11/M04 A302 RMK A01 T01141044  RH  033%=      5-min Rain = 0
KCO2 171740Z 07011KT 12/M05 A302 RMK A01 T01151045  RH  032%=      5-min Rain = 0
KCO2 171741Z 07011KT 11/M05 A302 RMK A01 T01141046  RH  032%=      5-min Rain = 0
KCO2 171742Z 07009KT 11/M05 A302 RMK A01 T01141045  RH  032%=      5-min Rain = 0
KCO2 171743Z 07007KT 11/M05 A302 RMK A01 T01141045  RH  033%=      5-min Rain = 0
KCO2 171744Z 06009KT 11/M04 A302 RMK A01 T01141043  RH  033%=      5-min Rain = 0
KCO2 171745Z 06009KT 12/M04 A302 RMK A01 T01161044  RH  032%=      5-min Rain = 0
KCO2 171746Z 08009KT 11/M04 A302 RMK A01 T01141043  RH  033%=      5-min Rain = 0
KCO2 171747Z 09010KT 11/M04 A302 RMK A01 T01141041  RH  033%=      5-min Rain = 0
KCO2 171748Z 09008KT 12/M04 A302 RMK A01 T01161040  RH  033%=      5-min Rain = 0
KCO2 171749Z 10009KT 12/M04 A302 RMK A01 T01191041  RH  032%=      5-min Rain = 0
KCO2 171750Z 10011G18KT 12/M04 A302 RMK A01 T01191044  RH  032%=      5-min Rain = 0
KCO2 171751Z 07011KT 12/M05 A302 RMK A01 T01191046  RH  031%=      5-min Rain = 0
KCO2 171752Z 08011KT 12/M05 A302 RMK A01 T01161045  RH  032%=      5-min Rain = 0
KCO2 171753Z 08010KT 12/M05 A302 RMK A01 T01161046  RH  032%=      5-min Rain = 0
KCO2 171754Z 08010KT 12/M05 A302 RMK A01 T01161047  RH  032%=      5-min Rain = 0
KCO2 171755Z 08009KT 12/M04 A302 RMK A01 T01181043  RH  032%=      5-min Rain = 0
KCO2 171756Z 07009KT 12/M04 A302 RMK A01 T01181044  RH  032%=      5-min Rain = 0
KCO2 171757Z 06010KT 12/M04 A302 RMK A01 T01181041  RH  033%=      5-min Rain = 0
KCO2 171758Z 07012KT 12/M04 A3019 RMK A01 T01171043  RH  032%=      5-min Rain = 0
KCO2 171759Z 06013KT 12/M04 A3019 RMK A01 T01151044  RH  032%=      5-min Rain = 0
KCO2 171800Z 06012KT 11/M04 A302 RMK A01 T01141044  RH  033%=      5-min Rain = 0
KCO2 171801Z 08010KT 11/M05 A302 RMK A01 T01141045  RH  033%=      5-min Rain = 0
KCO2 171802Z 08008KT 11/M05 A3019 RMK A01 T01141046  RH  032%=      5-min Rain = 0
KCO2 171803Z 08012KT 12/M04 A3019 RMK A01 T01171042  RH  032%=      5-min Rain = 0
KCO2 171804Z 08010KT 12/M04 A302 RMK A01 T01211041  RH  032%=      5-min Rain = 0
KCO2 171805Z 08007KT 12/M04 A302 RMK A01 T01221042  RH  031%=      5-min Rain = 0
KCO2 171806Z 09010KT 12/M04 A302 RMK A01 T01221043  RH  031%=      5-min Rain = 0
KCO2 171807Z 09009KT 12/M05 A3019 RMK A01 T01231046  RH  030%=      5-min Rain = 0
KCO2 171808Z 09009KT 12/M05 A3019 RMK A01 T01221045  RH  031%=      5-min Rain = 0
KCO2 171809Z 06010KT 12/M04 A3019 RMK A01 T01211043  RH  031%=      5-min Rain = 0
KCO2 171810Z 08011KT 12/M04 A3019 RMK A01 T01201044  RH  032%=      5-min Rain = 0
KCO2 171811Z 10009KT 12/M04 A3019 RMK A01 T01201043  RH  032%=      5-min Rain = 0
KCO2 171812Z 08009KT 12/M04 A3019 RMK A01 T01211043  RH  032%=      5-min Rain = 0
KCO2 171813Z 08012KT 12/M04 A3019 RMK A01 T01221044  RH  031%=      5-min Rain = 0
KCO2 171814Z 07013KT 12/M05 A3019 RMK A01 T01191046  RH  031%=      5-min Rain = 0
KCO2 171815Z 07010KT 12/M05 A3019 RMK A01 T01171045  RH  032%=      5-min Rain = 0
KCO2 171816Z 07008KT 12/M05 A3018 RMK A01 T01161045  RH  032%=      5-min Rain = 0
KCO2 171817Z 06008KT 12/M05 A3018 RMK A01 T01161045  RH  032%=      5-min Rain = 0
KCO2 171818Z 09010KT 12/M04 A3018 RMK A01 T01151043  RH  033%=      5-min Rain = 0
KCO2 171819Z 10010KT 12/M04 A3018 RMK A01 T01181043  RH  032%=      5-min Rain = 0
KCO2 171820Z 09010KT 12/M04 A3018 RMK A01 T01181044  RH  032%=      5-min Rain = 0
KCO2 171821Z 09009KT 12/M04 A3018 RMK A01 T01191044  RH  032%=      5-min Rain = 0
KCO2 171822Z 10013KT 12/M05 A3018 RMK A01 T01211045  RH  031%=      5-min Rain = 0
KCO2 171823Z 10012KT 12/M05 A3018 RMK A01 T01211046  RH  031%=      5-min Rain = 0
KCO2 171824Z 08009KT 12/M05 A3018 RMK A01 T01211046  RH  031%=      5-min Rain = 0
KCO2 171825Z 07009KT 12/M05 A3018 RMK A01 T01201048  RH  031%=      5-min Rain = 0
KCO2 171826Z 08010KT 12/M05 A3018 RMK A01 T01181049  RH  031%=      5-min Rain = 0
KCO2 171827Z 09008KT 12/M05 A3018 RMK A01 T01181045  RH  032%=      5-min Rain = 0
KCO2 171828Z 08008KT 12/M04 A3018 RMK A01 T01221042  RH  031%=      5-min Rain = 0
KCO2 171829Z 10007KT 12/M04 A3018 RMK A01 T01241043  RH  031%=      5-min Rain = 0
KCO2 171830Z 08010KT 13/M05 A3018 RMK A01 T01251045  RH  030%=      5-min Rain = 0
KCO2 171831Z 05011KT 12/M04 A3017 RMK A01 T01231043  RH  031%=      5-min Rain = 0
KCO2 171832Z 08009KT 12/M04 A3017 RMK A01 T01201043  RH  032%=      5-min Rain = 0
KCO2 171833Z 09010KT 12/M05 A3017 RMK A01 T01191046  RH  031%=      5-min Rain = 0
KCO2 171834Z 09011KT 12/M05 A3017 RMK A01 T01211049  RH  030%=      5-min Rain = 0
KCO2 171835Z 10011KT 12/M05 A3017 RMK A01 T01231051  RH  029%=      5-min Rain = 0
KCO2 171836Z 09012KT 12/M05 A3017 RMK A01 T01231050  RH  030%=      5-min Rain = 0
KCO2 171837Z 09010KT 12/M05 A3017 RMK A01 T01231048  RH  030%=      5-min Rain = 0
KCO2 171838Z 09008KT 12/M05 A3017 RMK A01 T01221049  RH  030%=      5-min Rain = 0
KCO2 171839Z 09007KT 12/M05 A3017 RMK A01 T01191051  RH  030%=      5-min Rain = 0
KCO2 171840Z 10009KT 12/M05 A3017 RMK A01 T01181049  RH  031%=      5-min Rain = 0
KCO2 171841Z 08009KT 12/M05 A3017 RMK A01 T01221045  RH  031%=      5-min Rain = 0
KCO2 171842Z 09007KT 13/M05 A3016 RMK A01 T01251045  RH  030%=      5-min Rain = 0
KCO2 171843Z 10010KT 13/M05 A3016 RMK A01 T01271047  RH  029%=      5-min Rain = 0
KCO2 171844Z 10010KT 13/M05 A3016 RMK A01 T01261048  RH  029%=      5-min Rain = 0
KCO2 171845Z 09008KT 13/M05 A3016 RMK A01 T01251047  RH  030%=      5-min Rain = 0
KCO2 171846Z 09010KT 13/M05 A3016 RMK A01 T01251046  RH  030%=      5-min Rain = 0
KCO2 171847Z 09009KT 13/M05 A3016 RMK A01 T01251050  RH  029%=      5-min Rain = 0
KCO2 171848Z 09008KT 12/M05 A3016 RMK A01 T01241050  RH  029%=      5-min Rain = 0
KCO2 171849Z 08009KT 12/M05 A3016 RMK A01 T01221051  RH  030%=      5-min Rain = 0
KCO2 171850Z 10008KT 12/M05 A3016 RMK A01 T01201050  RH  030%=      5-min Rain = 0
KCO2 171851Z 09008KT 12/M05 A3016 RMK A01 T01201047  RH  031%=      5-min Rain = 0
KCO2 171852Z 09006KT 12/M05 A3016 RMK A01 T01201045  RH  031%=      5-min Rain = 0
KCO2 171853Z 09005KT 12/M04 A3016 RMK A01 T01231040  RH  032%=      5-min Rain = 0
KCO2 171854Z 06007KT 13/M04 A3016 RMK A01 T01261042  RH  031%=      5-min Rain = 0
KCO2 171855Z 06009KT 13/M04 A3016 RMK A01 T01251043  RH  031%=      5-min Rain = 0
KCO2 171856Z 07010KT 13/M04 A3016 RMK A01 T01251043  RH  031%=      5-min Rain = 0
KCO2 171857Z 07009KT 12/M04 A3016 RMK A01 T01241044  RH  031%=      5-min Rain = 0
KCO2 171858Z 08006KT 12/M05 A3016 RMK A01 T01201046  RH  031%=      5-min Rain = 0
KCO2 171859Z 07009KT 12/M04 A3016 RMK A01 T01191044  RH  032%=      5-min Rain = 0
KCO2 171900Z 08010KT 12/M05 A3015 RMK A01 T01201045  RH  031%=      5-min Rain = 0
KCO2 171901Z 06011KT 12/M04 A3015 RMK A01 T01201044  RH  031%=      5-min Rain = 0
KCO2 171902Z 06009KT 12/M05 A3015 RMK A01 T01191045  RH  031%=      5-min Rain = 0
KCO2 171903Z 08009KT 12/M04 A3015 RMK A01 T01191043  RH  032%=      5-min Rain = 0
KCO2 171904Z 09009KT 12/M04 A3015 RMK A01 T01201044  RH  031%=      5-min Rain = 0
KCO2 171905Z 06009KT 12/M04 A3015 RMK A01 T01221043  RH  031%=      5-min Rain = 0
KCO2 171906Z 04006KT 12/M04 A3015 RMK A01 T01231043  RH  031%=      5-min Rain = 0
KCO2 171907Z 06009KT 12/M04 A3015 RMK A01 T01231042  RH  031%=      5-min Rain = 0
KCO2 171908Z 07011KT 12/M04 A3015 RMK A01 T01241042  RH  031%=      5-min Rain = 0
KCO2 171909Z 07008KT 12/M04 A3015 RMK A01 T01241043  RH  031%=      5-min Rain = 0
KCO2 171910Z 07007KT 12/M04 A3015 RMK A01 T01221044  RH  031%=      5-min Rain = 0
KCO2 171911Z 08007KT 12/M04 A3015 RMK A01 T01211044  RH  031%=      5-min Rain = 0
KCO2 171912Z 07007KT 12/M04 A3015 RMK A01 T01221042  RH  032%=      5-min Rain = 0
KCO2 171913Z 07008KT 12/M04 A3015 RMK A01 T01231043  RH  031%=      5-min Rain = 0
KCO2 171914Z 06009KT 12/M04 A3015 RMK A01 T01221043  RH  031%=      5-min Rain = 0
KCO2 171915Z 07009KT 12/M04 A3015 RMK A01 T01241041  RH  031%=      5-min Rain = 0
KCO2 171916Z 08009G14KT 13/M04 A3015 RMK A01 T01281040  RH  031%=      5-min Rain = 0
KCO2 171917Z 10008KT 13/M04 A3015 RMK A01 T01301042  RH  030%=      5-min Rain = 0
KCO2 171918Z 11009KT 13/M04 A3015 RMK A01 T01301042  RH  030%=      5-min Rain = 0
KCO2 171919Z 08008KT 13/M04 A3015 RMK A01 T01301042  RH  030%=      5-min Rain = 0
KCO2 171920Z 08008KT 13/M04 A3015 RMK A01 T01291043  RH  030%=      5-min Rain = 0
KCO2 171921Z 09009KT 13/M04 A3015 RMK A01 T01271043  RH  030%=      5-min Rain = 0
KCO2 171922Z 07009KT 13/M04 A3015 RMK A01 T01271043  RH  030%=      5-min Rain = 0
KCO2 171923Z 06011KT 13/M04 A3014 RMK A01 T01261042  RH  031%=      5-min Rain = 0
KCO2 171924Z 07012KT 13/M04 A3015 RMK A01 T01271042  RH  031%=      5-min Rain = 0
KCO2 171925Z 07010KT 13/M04 A3015 RMK A01 T01251043  RH  031%=      5-min Rain = 0
KCO2 171926Z 07007KT 12/M05 A3015 RMK A01 T01231045  RH  031%=      5-min Rain = 0
KCO2 171927Z 06004KT 12/M04 A3014 RMK A01 T01211044  RH  031%=      5-min Rain = 0
KCO2 171928Z 06008KT 12/M04 A3015 RMK A01 T01241039  RH  032%=      5-min Rain = 0
KCO2 171929Z 06009KT 13/M04 A3014 RMK A01 T01271041  RH  031%=      5-min Rain = 0
KCO2 171930Z 08009KT 12/M04 A3015 RMK A01 T01241044  RH  031%=      5-min Rain = 0
KCO2 171931Z 10007KT 12/M04 A3014 RMK A01 T01241043  RH  031%=      5-min Rain = 0
KCO2 171932Z 10004KT 13/M04 A3014 RMK A01 T01261041  RH  031%=      5-min Rain = 0
KCO2 171933Z 09006KT 13/M04 A3014 RMK A01 T01291040  RH  031%=      5-min Rain = 0
KCO2 171934Z 09007KT 13/M04 A3014 RMK A01 T01301041  RH  030%=      5-min Rain = 0
KCO2 171935Z 09007KT 13/M04 A3014 RMK A01 T01301043  RH  030%=      5-min Rain = 0
KCO2 171936Z 10007KT 13/M04 A3014 RMK A01 T01291044  RH  030%=      5-min Rain = 0
KCO2 171937Z 12009KT 13/M04 A3014 RMK A01 T01291043  RH  030%=      5-min Rain = 0
KCO2 171938Z 11007KT 13/M04 A3014 RMK A01 T01291044  RH  030%=      5-min Rain = 0
KCO2 171939Z 10007KT 13/M04 A3014 RMK A01 T01281043  RH  030%=      5-min Rain = 0
KCO2 171940Z 09011KT 13/M04 A3014 RMK A01 T01291042  RH  030%=      5-min Rain = 0
KCO2 171941Z 08009KT 13/M04 A3014 RMK A01 T01281044  RH  030%=      5-min Rain = 0
KCO2 171942Z 09006KT 13/M05 A3014 RMK A01 T01261045  RH  030%=      5-min Rain = 0
KCO2 171943Z 09006KT 12/M04 A3014 RMK A01 T01241044  RH  031%=      5-min Rain = 0
KCO2 171944Z 09008KT 13/M04 A3014 RMK A01 T01251041  RH  031%=      5-min Rain = 0
KCO2 171945Z 09008KT 13/M04 A3014 RMK A01 T01271039  RH  031%=      5-min Rain = 0
KCO2 171946Z 08006KT 13/M04 A3014 RMK A01 T01271040  RH  031%=      5-min Rain = 0
KCO2 171947Z 09006KT 12/M04 A3014 RMK A01 T01241042  RH  031%=      5-min Rain = 0
KCO2 171948Z 09006KT 13/M04 A3013 RMK A01 T01251040  RH  031%=      5-min Rain = 0
KCO2 171949Z 08007KT 13/M04 A3013 RMK A01 T01271039  RH  031%=      5-min Rain = 0
KCO2 171950Z 08005KT 13/M04 A3013 RMK A01 T01271039  RH  031%=      5-min Rain = 0
KCO2 171951Z 10005KT 13/M04 A3013 RMK A01 T01261038  RH  032%=      5-min Rain = 0
KCO2 171952Z 09005KT 13/M04 A3013 RMK A01 T01271038  RH  031%=      5-min Rain = 0
KCO2 171953Z 07007KT 13/M04 A3013 RMK A01 T01281038  RH  031%=      5-min Rain = 0
KCO2 171954Z 05008KT 13/M04 A3013 RMK A01 T01291039  RH  031%=      5-min Rain = 0
KCO2 171955Z 05006KT 13/M04 A3013 RMK A01 T01291039  RH  031%=      5-min Rain = 0
KCO2 171956Z 05005KT 13/M04 A3013 RMK A01 T01291039  RH  031%=      5-min Rain = 0
KCO2 171957Z 06004KT 13/M04 A3013 RMK A01 T01291038  RH  031%=      5-min Rain = 0
KCO2 171958Z 08004KT 13/M04 A3012 RMK A01 T01281038  RH  031%=      5-min Rain = 0
KCO2 171959Z 12008KT 13/M04 A3013 RMK A01 T01291037  RH  031%=      5-min Rain = 0
KCO2 172000Z 12007KT 13/M04 A3012 RMK A01 T01321039  RH  030%=      5-min Rain = 0
KCO2 172001Z 11005KT 13/M04 A3012 RMK A01 T01321040  RH  030%=      5-min Rain = 0
KCO2 172002Z 12006KT 13/M04 A3012 RMK A01 T01331038  RH  030%=      5-min Rain = 0
KCO2 172003Z 11005KT 13/M04 A3012 RMK A01 T01331039  RH  030%=      5-min Rain = 0
KCO2 172004Z 10008KT 13/M04 A3012 RMK A01 T01321038  RH  030%=      5-min Rain = 0
KCO2 172005Z 09008KT 13/M04 A3012 RMK A01 T01341037  RH  030%=      5-min Rain = 0
KCO2 172006Z 09006KT 14/M04 A3012 RMK A01 T01351037  RH  030%=      5-min Rain = 0
KCO2 172007Z 11003KT 13/M04 A3012 RMK A01 T01341037  RH  030%=      5-min Rain = 0
KCO2 172008Z 09003KT 13/M04 A3012 RMK A01 T01341038  RH  030%=      5-min Rain = 0
KCO2 172009Z 05007KT 13/M04 A3012 RMK A01 T01331038  RH  030%=      5-min Rain = 0
KCO2 172010Z 08006KT 13/M04 A3012 RMK A01 T01321039  RH  030%=      5-min Rain = 0
KCO2 172011Z 09008KT 13/M04 A3012 RMK A01 T01311038  RH  031%=      5-min Rain = 0
KCO2 172012Z 08008KT 13/M04 A3012 RMK A01 T01311040  RH  030%=      5-min Rain = 0
KCO2 172013Z 08008KT 13/M04 A3012 RMK A01 T01291041  RH  030%=      5-min Rain = 0
KCO2 172014Z 08004KT 13/M04 A3012 RMK A01 T01281040  RH  031%=      5-min Rain = 0
KCO2 172015Z 09001KT 13/M04 A3012 RMK A01 T01271042  RH  031%=      5-min Rain = 0
KCO2 172016Z 09004KT 13/M04 A3011 RMK A01 T01261042  RH  031%=      5-min Rain = 0
KCO2 172017Z 07004KT 13/M04 A3011 RMK A01 T01271041  RH  031%=      5-min Rain = 0
KCO2 172018Z 09004KT 13/M04 A3011 RMK A01 T01281042  RH  030%=      5-min Rain = 0
KCO2 172019Z 10006KT 13/M04 A3011 RMK A01 T01281042  RH  030%=      5-min Rain = 0
KCO2 172020Z 08008KT 13/M04 A3011 RMK A01 T01281041  RH  030%=      5-min Rain = 0
KCO2 172021Z 09006KT 13/M04 A3011 RMK A01 T01291042  RH  030%=      5-min Rain = 0
KCO2 172022Z 09005KT 13/M04 A3011 RMK A01 T01291043  RH  030%=      5-min Rain = 0
KCO2 172023Z 08007KT 13/M04 A3011 RMK A01 T01281041  RH  030%=      5-min Rain = 0
KCO2 172024Z 09005KT 13/M04 A3011 RMK A01 T01281042  RH  030%=      5-min Rain = 0
KCO2 172025Z 10006KT 13/M04 A3011 RMK A01 T01291040  RH  031%=      5-min Rain = 0
KCO2 172026Z 12008KT 13/M04 A3011 RMK A01 T01331039  RH  030%=      5-min Rain = 0
KCO2 172027Z 13007KT 14/M04 A3011 RMK A01 T01351040  RH  029%=      5-min Rain = 0
KCO2 172028Z 11006KT 14/M04 A3011 RMK A01 T01351040  RH  029%=      5-min Rain = 0
KCO2 172029Z 08006KT 14/M04 A3011 RMK A01 T01351040  RH  029%=      5-min Rain = 0
KCO2 172030Z 06003KT 13/M04 A301 RMK A01 T01331040  RH  030%=      5-min Rain = 0
KCO2 172031Z 06006KT 13/M04 A301 RMK A01 T01321039  RH  030%=      5-min Rain = 0
KCO2 172032Z 08007KT 13/M04 A301 RMK A01 T01331038  RH  030%=      5-min Rain = 0
KCO2 172033Z 09009KT 13/M04 A301 RMK A01 T01341041  RH  030%=      5-min Rain = 0
KCO2 172034Z 10007KT 14/M04 A301 RMK A01 T01351042  RH  029%=      5-min Rain = 0
KCO2 172035Z 11006KT 14/M04 A301 RMK A01 T01361042  RH  029%=      5-min Rain = 0
KCO2 172036Z 11008KT 14/M04 A301 RMK A01 T01361042  RH  029%=      5-min Rain = 0
KCO2 172037Z 09007G12KT 14/M04 A301 RMK A01 T01361042  RH  029%=      5-min Rain = 0
KCO2 172038Z 10006KT 14/M04 A301 RMK A01 T01361041  RH  029%=      5-min Rain = 0
KCO2 172039Z 08006KT 14/M04 A301 RMK A01 T01351042  RH  029%=      5-min Rain = 0
KCO2 172040Z 09008KT 14/M04 A301 RMK A01 T01351041  RH  029%=      5-min Rain = 0
KCO2 172041Z 09007KT 14/M04 A301 RMK A01 T01371043  RH  028%=      5-min Rain = 0
KCO2 172042Z 10006KT 14/M04 A301 RMK A01 T01361043  RH  029%=      5-min Rain = 0
KCO2 172043Z 12007KT 14/M04 A301 RMK A01 T01351044  RH  029%=      5-min Rain = 0
KCO2 172044Z 14006KT 14/M04 A301 RMK A01 T01361041  RH  029%=      5-min Rain = 0
KCO2 172045Z 14005KT 14/M04 A301 RMK A01 T01381043  RH  028%=      5-min Rain = 0
KCO2 172046Z 13006KT 14/M04 A301 RMK A01 T01381043  RH  028%=      5-min Rain = 0
KCO2 172047Z 16004KT 14/M04 A301 RMK A01 T01381043  RH  028%=      5-min Rain = 0
KCO2 172048Z 13006KT 14/M04 A301 RMK A01 T01381043  RH  028%=      5-min Rain = 0
KCO2 172049Z 11007KT 14/M04 A301 RMK A01 T01391042  RH  028%=      5-min Rain = 0
KCO2 172050Z 09006KT 14/M04 A301 RMK A01 T01381043  RH  028%=      5-min Rain = 0
KCO2 172051Z 09004KT 14/M04 A301 RMK A01 T01371044  RH  028%=      5-min Rain = 0
KCO2 172052Z 12004KT 14/M04 A301 RMK A01 T01361043  RH  028%=      5-min Rain = 0
KCO2 172053Z 14005KT 14/M04 A301 RMK A01 T01371043  RH  028%=      5-min Rain = 0
KCO2 172054Z 10006KT 14/M04 A301 RMK A01 T01381044  RH  028%=      5-min Rain = 0
KCO2 172055Z 10008KT 14/M04 A3011 RMK A01 T01381041  RH  029%=      5-min Rain = 0
KCO2 172056Z 09008KT 14/M04 A3011 RMK A01 T01401040  RH  028%=      5-min Rain = 0
KCO2 172057Z 09007KT 14/M04 A3011 RMK A01 T01381044  RH  028%=      5-min Rain = 0
KCO2 172058Z 08007KT 13/M04 A3011 RMK A01 T01341044  RH  029%=      5-min Rain = 0
KCO2 172059Z 06006KT 13/M04 A3011 RMK A01 T01341043  RH  029%=      5-min Rain = 0
KCO2 172100Z 06004KT 13/M04 A301 RMK A01 T01331044  RH  029%=      5-min Rain = 0
KCO2 172101Z 10005KT 13/M04 A301 RMK A01 T01321043  RH  029%=      5-min Rain = 0
KCO2 172102Z 12007KT 13/M04 A301 RMK A01 T01331042  RH  029%=      5-min Rain = 0
KCO2 172103Z 13007KT 14/M04 A301 RMK A01 T01361043  RH  029%=      5-min Rain = 0
KCO2 172104Z 13007KT 14/M04 A301 RMK A01 T01391042  RH  028%=      5-min Rain = 0
KCO2 172105Z 13004KT 14/M04 A301 RMK A01 T01401044  RH  028%=      5-min Rain = 0
KCO2 172106Z 11003KT 14/M04 A301 RMK A01 T01391044  RH  028%=      5-min Rain = 0
KCO2 172107Z 10005KT 14/M04 A301 RMK A01 T01391044  RH  028%=      5-min Rain = 0
KCO2 172108Z 11003KT 14/M04 A301 RMK A01 T01381044  RH  028%=      5-min Rain = 0
KCO2 172109Z 12004KT 14/M05 A301 RMK A01 T01381045  RH  028%=      5-min Rain = 0
KCO2 172110Z 11005KT 14/M04 A301 RMK A01 T01381044  RH  028%=      5-min Rain = 0
KCO2 172111Z 09006KT 14/M04 A301 RMK A01 T01401043  RH  028%=      5-min Rain = 0
KCO2 172112Z 08007KT 14/M04 A301 RMK A01 T01401043  RH  028%=      5-min Rain = 0
KCO2 172113Z 08008KT 14/M04 A301 RMK A01 T01391043  RH  028%=      5-min Rain = 0
KCO2 172114Z 07007KT 14/M05 A301 RMK A01 T01371045  RH  028%=      5-min Rain = 0
KCO2 172115Z 08007KT 14/M04 A301 RMK A01 T01361044  RH  028%=      5-min Rain = 0
KCO2 172116Z 07008KT 14/M05 A301 RMK A01 T01361045  RH  028%=      5-min Rain = 0
KCO2 172117Z 07006KT 14/M05 A301 RMK A01 T01351046  RH  028%=      5-min Rain = 0
KCO2 172118Z 07007KT 13/M05 A301 RMK A01 T01341045  RH  029%=      5-min Rain = 0
KCO2 172119Z 06004KT 13/M05 A301 RMK A01 T01341046  RH  028%=      5-min Rain = 0
KCO2 172120Z 09003KT 13/M05 A301 RMK A01 T01341045  RH  029%=      5-min Rain = 0
KCO2 172121Z 10002KT 14/M05 A301 RMK A01 T01351045  RH  028%=      5-min Rain = 0
KCO2 172122Z 07003KT 14/M05 A301 RMK A01 T01361045  RH  028%=      5-min Rain = 0
KCO2 172123Z 04003KT 14/M05 A301 RMK A01 T01371045  RH  028%=      5-min Rain = 0
KCO2 172124Z 04003KT 14/M05 A301 RMK A01 T01371045  RH  028%=      5-min Rain = 0
KCO2 172125Z 05005KT 14/M05 A301 RMK A01 T01361046  RH  028%=      5-min Rain = 0
KCO2 172126Z 05006KT 13/M05 A301 RMK A01 T01341045  RH  028%=      5-min Rain = 0
KCO2 172127Z 08007KT 13/M04 A301 RMK A01 T01341044  RH  029%=      5-min Rain = 0
KCO2 172128Z 08006KT 13/M04 A301 RMK A01 T01341044  RH  029%=      5-min Rain = 0
KCO2 172129Z 09004KT 13/M05 A301 RMK A01 T01331046  RH  028%=      5-min Rain = 0
KCO2 172130Z 08003KT 13/M05 A301 RMK A01 T01331045  RH  029%=      5-min Rain = 0
KCO2 172131Z 07005KT 13/M04 A301 RMK A01 T01341044  RH  029%=      5-min Rain = 0
KCO2 172132Z 05006KT 14/M05 A301 RMK A01 T01351045  RH  028%=      5-min Rain = 0
KCO2 172133Z 06006KT 14/M05 A301 RMK A01 T01361045  RH  028%=      5-min Rain = 0
KCO2 172134Z 05005KT 14/M05 A301 RMK A01 T01361047  RH  028%=      5-min Rain = 0
KCO2 172135Z 07007KT 14/M05 A301 RMK A01 T01351047  RH  028%=      5-min Rain = 0
KCO2 172136Z 08009KT 14/M05 A301 RMK A01 T01351045  RH  028%=      5-min Rain = 0
KCO2 172137Z 08006KT 14/M04 A301 RMK A01 T01361043  RH  028%=      5-min Rain = 0
KCO2 172138Z 07006KT 14/M04 A301 RMK A01 T01361043  RH  029%=      5-min Rain = 0
KCO2 172139Z 06006KT 14/M04 A301 RMK A01 T01361043  RH  028%=      5-min Rain = 0
KCO2 172140Z 06005KT 14/M04 A301 RMK A01 T01361044  RH  028%=      5-min Rain = 0
KCO2 172141Z 05004KT 14/M04 A301 RMK A01 T01361042  RH  029%=      5-min Rain = 0
KCO2 172142Z 04004KT 14/M04 A301 RMK A01 T01371044  RH  028%=      5-min Rain = 0
KCO2 172143Z 06006KT 14/M05 A301 RMK A01 T01351045  RH  028%=      5-min Rain = 0
KCO2 172144Z 05005KT 13/M04 A301 RMK A01 T01341044  RH  029%=      5-min Rain = 0
KCO2 172145Z 07004KT 13/M05 A301 RMK A01 T01331045  RH  029%=      5-min Rain = 0
KCO2 172146Z 09006KT 13/M04 A301 RMK A01 T01341044  RH  029%=      5-min Rain = 0
KCO2 172147Z 09006KT 14/M04 A301 RMK A01 T01371042  RH  029%=      5-min Rain = 0
KCO2 172148Z 07006KT 14/M04 A301 RMK A01 T01381044  RH  028%=      5-min Rain = 0
KCO2 172149Z 07006KT 14/M05 A301 RMK A01 T01371045  RH  028%=      5-min Rain = 0
KCO2 172150Z 07007KT 14/M05 A301 RMK A01 T01361045  RH  028%=      5-min Rain = 0
KCO2 172151Z 08008KT 14/M05 A301 RMK A01 T01361045  RH  028%=      5-min Rain = 0
KCO2 172152Z 06008KT 14/M05 A301 RMK A01 T01361046  RH  028%=      5-min Rain = 0
KCO2 172153Z 07007KT 14/M05 A301 RMK A01 T01371046  RH  028%=      5-min Rain = 0
KCO2 172154Z 07007KT 14/M05 A301 RMK A01 T01351047  RH  028%=      5-min Rain = 0
KCO2 172155Z 06006KT 13/M05 A301 RMK A01 T01341047  RH  028%=      5-min Rain = 0
KCO2 172156Z 07008KT 13/M05 A301 RMK A01 T01341047  RH  028%=      5-min Rain = 0
KCO2 172157Z 07006KT 13/M05 A301 RMK A01 T01341047  RH  028%=      5-min Rain = 0
KCO2 172158Z 08006KT 14/M05 A301 RMK A01 T01351047  RH  028%=      5-min Rain = 0
KCO2 172159Z 08004KT 14/M05 A301 RMK A01 T01351048  RH  028%=      5-min Rain = 0
KCO2 172200Z 07004KT 14/M05 A301 RMK A01 T01351047  RH  028%=      5-min Rain = 0
KCO2 172201Z 06004KT 14/M05 A301 RMK A01 T01351047  RH  028%=      5-min Rain = 0
KCO2 172202Z 04003KT 14/M05 A301 RMK A01 T01361046  RH  028%=      5-min Rain = 0
KCO2 172203Z 07005KT 14/M05 A301 RMK A01 T01361045  RH  028%=      5-min Rain = 0
KCO2 172204Z 08004KT 14/M05 A301 RMK A01 T01361046  RH  028%=      5-min Rain = 0
KCO2 172205Z 07004KT 14/M05 A301 RMK A01 T01351047  RH  028%=      5-min Rain = 0
KCO2 172206Z 08004KT 13/M05 A301 RMK A01 T01341046  RH  028%=      5-min Rain = 0
KCO2 172207Z 06007KT 13/M05 A301 RMK A01 T01341045  RH  028%=      5-min Rain = 0
KCO2 172208Z 05008KT 13/M04 A301 RMK A01 T01341044  RH  029%=      5-min Rain = 0
KCO2 172209Z 05008KT 13/M04 A301 RMK A01 T01341043  RH  029%=      5-min Rain = 0
KCO2 172210Z 06006KT 13/M04 A3011 RMK A01 T01341044  RH  029%=      5-min Rain = 0
KCO2 172211Z 07006KT 13/M04 A3011 RMK A01 T01341044  RH  029%=      5-min Rain = 0
KCO2 172212Z 06005KT 14/M04 A3011 RMK A01 T01351043  RH  029%=      5-min Rain = 0
KCO2 172213Z 05006KT 14/M04 A3011 RMK A01 T01381042  RH  028%=      5-min Rain = 0
KCO2 172214Z 05006KT 14/M04 A3011 RMK A01 T01391044  RH  028%=      5-min Rain = 0
KCO2 172215Z 06007KT 14/M05 A301 RMK A01 T01391045  RH  028%=      5-min Rain = 0
KCO2 172216Z 05007KT 14/M05 A301 RMK A01 T01381045  RH  028%=      5-min Rain = 0
KCO2 172217Z 05006KT 14/M05 A301 RMK A01 T01371046  RH  028%=      5-min Rain = 0
KCO2 172218Z 04005KT 14/M05 A301 RMK A01 T01361047  RH  028%=      5-min Rain = 0
KCO2 172219Z 04006KT 14/M05 A301 RMK A01 T01361046  RH  028%=      5-min Rain = 0
KCO2 172220Z 07007KT 14/M05 A301 RMK A01 T01361045  RH  028%=      5-min Rain = 0
KCO2 172221Z 07006KT 14/M04 A301 RMK A01 T01371044  RH  028%=      5-min Rain = 0
KCO2 172222Z 08006KT 14/M04 A301 RMK A01 T01361044  RH  028%=      5-min Rain = 0
KCO2 172223Z 09005KT 14/M05 A301 RMK A01 T01361045  RH  028%=      5-min Rain = 0
KCO2 172224Z 06005KT 14/M05 A301 RMK A01 T01361045  RH  028%=      5-min Rain = 0
KCO2 172225Z 05007KT 14/M04 A301 RMK A01 T01351043  RH  029%=      5-min Rain = 0
KCO2 172226Z 05006KT 14/M04 A301 RMK A01 T01351042  RH  029%=      5-min Rain = 0
KCO2 172227Z 07007KT 14/M04 A301 RMK A01 T01351041  RH  029%=      5-min Rain = 0
KCO2 172228Z 07008KT 14/M04 A301 RMK A01 T01351041  RH  029%=      5-min Rain = 0
KCO2 172229Z 07006KT 13/M04 A301 RMK A01 T01341042  RH  029%=      5-min Rain = 0
KCO2 172230Z 07009KT 13/M04 A301 RMK A01 T01341042  RH  029%=      5-min Rain = 0
KCO2 172231Z 07007KT 13/M04 A301 RMK A01 T01331044  RH  029%=      5-min Rain = 0
KCO2 172232Z 07007KT 13/M04 A301 RMK A01 T01321043  RH  029%=      5-min Rain = 0
KCO2 172233Z 06005KT 13/M04 A301 RMK A01 T01321043  RH  029%=      5-min Rain = 0
KCO2 172234Z 08007KT 13/M04 A301 RMK A01 T01321043  RH  029%=      5-min Rain = 0
KCO2 172235Z 08008KT 13/M04 A301 RMK A01 T01321043  RH  029%=      5-min Rain = 0
KCO2 172236Z 08007KT 13/M04 A301 RMK A01 T01321043  RH  029%=      5-min Rain = 0
KCO2 172237Z 08006KT 13/M04 A301 RMK A01 T01331043  RH  029%=      5-min Rain = 0
KCO2 172238Z 08005KT 13/M04 A301 RMK A01 T01331043  RH  029%=      5-min Rain = 0
KCO2 172239Z 08007KT 13/M04 A301 RMK A01 T01331044  RH  029%=      5-min Rain = 0
KCO2 172240Z 09006KT 13/M05 A301 RMK A01 T01331045  RH  029%=      5-min Rain = 0
KCO2 172241Z 08005KT 13/M05 A301 RMK A01 T01321045  RH  029%=      5-min Rain = 0
KCO2 172242Z 08004KT 13/M05 A301 RMK A01 T01321045  RH  029%=      5-min Rain = 0
KCO2 172243Z 08007KT 13/M04 A301 RMK A01 T01321044  RH  029%=      5-min Rain = 0
KCO2 172244Z 08006KT 13/M04 A301 RMK A01 T01321044  RH  029%=      5-min Rain = 0
KCO2 172245Z 08007KT 13/M04 A301 RMK A01 T01321044  RH  029%=      5-min Rain = 0
KCO2 172246Z 09008KT 13/M04 A301 RMK A01 T01311044  RH  029%=      5-min Rain = 0
KCO2 172247Z 08006KT 13/M04 A301 RMK A01 T01311044  RH  029%=      5-min Rain = 0
KCO2 172248Z 09007KT 13/M04 A301 RMK A01 T01321042  RH  029%=      5-min Rain = 0
KCO2 172249Z 08008KT 13/M04 A301 RMK A01 T01331043  RH  029%=      5-min Rain = 0
KCO2 172250Z 08007KT 13/M04 A301 RMK A01 T01321044  RH  029%=      5-min Rain = 0
KCO2 172251Z 08006KT 13/M05 A301 RMK A01 T01311045  RH  029%=      5-min Rain = 0
KCO2 172252Z 08006KT 13/M04 A301 RMK A01 T01311044  RH  029%=      5-min Rain = 0
KCO2 172253Z 08005KT 13/M04 A301 RMK A01 T01311044  RH  029%=      5-min Rain = 0
KCO2 172254Z 07007KT 13/M05 A301 RMK A01 T01301045  RH  029%=      5-min Rain = 0
KCO2 172255Z 07006KT 13/M04 A301 RMK A01 T01301044  RH  030%=      5-min Rain = 0
KCO2 172256Z 08006KT 13/M04 A301 RMK A01 T01301042  RH  030%=      5-min Rain = 0
KCO2 172257Z 08007KT 13/M04 A301 RMK A01 T01301042  RH  030%=      5-min Rain = 0
KCO2 172258Z 08009KT 13/M04 A301 RMK A01 T01301042  RH  030%=      5-min Rain = 0
KCO2 172259Z 08008KT 13/M04 A301 RMK A01 T01291044  RH  030%=      5-min Rain = 0
KCO2 172300Z 07007KT 13/M04 A301 RMK A01 T01281044  RH  030%=      5-min Rain = 0
KCO2 172301Z 08004KT 13/M04 A301 RMK A01 T01271044  RH  030%=      5-min Rain = 0
KCO2 172302Z 08005KT 13/M04 A301 RMK A01 T01271044  RH  030%=      5-min Rain = 0
KCO2 172303Z 07006KT 13/M04 A301 RMK A01 T01271044  RH  030%=      5-min Rain = 0
KCO2 172304Z 07005KT 13/M04 A301 RMK A01 T01261044  RH  030%=      5-min Rain = 0
KCO2 172305Z 06006KT 13/M04 A3011 RMK A01 T01261044  RH  030%=      5-min Rain = 0
KCO2 172306Z 06006KT 13/M04 A3011 RMK A01 T01261044  RH  030%=      5-min Rain = 0
KCO2 172307Z 06007KT 13/M04 A3011 RMK A01 T01261044  RH  030%=      5-min Rain = 0
KCO2 172308Z 07007KT 13/M04 A3011 RMK A01 T01261042  RH  031%=      5-min Rain = 0
KCO2 172309Z 06008KT 13/M04 A3011 RMK A01 T01261043  RH  031%=      5-min Rain = 0
KCO2 172310Z 06008KT 13/M04 A3011 RMK A01 T01261043  RH  031%=      5-min Rain = 0
KCO2 172311Z 06007KT 13/M04 A3011 RMK A01 T01261042  RH  031%=      5-min Rain = 0
KCO2 172312Z 06006KT 13/M04 A3011 RMK A01 T01261042  RH  031%=      5-min Rain = 0
KCO2 172313Z 06006KT 13/M04 A3011 RMK A01 T01261042  RH  031%=      5-min Rain = 0
KCO2 172314Z 07008KT 13/M04 A3011 RMK A01 T01261042  RH  031%=      5-min Rain = 0
KCO2 172315Z 07007KT 13/M04 A3011 RMK A01 T01261043  RH  031%=      5-min Rain = 0
KCO2 172316Z 06006KT 13/M04 A3011 RMK A01 T01261042  RH  031%=      5-min Rain = 0
KCO2 172317Z 06005KT 13/M04 A301 RMK A01 T01261041  RH  031%=      5-min Rain = 0
KCO2 172318Z 06006KT 13/M04 A301 RMK A01 T01261041  RH  031%=      5-min Rain = 0
KCO2 172319Z 05006KT 13/M04 A301 RMK A01 T01261041  RH  031%=      5-min Rain = 0
KCO2 172320Z 05007KT 13/M04 A301 RMK A01 T01261041  RH  031%=      5-min Rain = 0
KCO2 172321Z 05007KT 13/M04 A301 RMK A01 T01251042  RH  031%=      5-min Rain = 0
KCO2 172322Z 05007KT 13/M04 A301 RMK A01 T01251042  RH  031%=      5-min Rain = 0
KCO2 172323Z 06007KT 12/M04 A301 RMK A01 T01241042  RH  031%=      5-min Rain = 0
KCO2 172324Z 06006KT 12/M04 A301 RMK A01 T01241042  RH  031%=      5-min Rain = 0
KCO2 172325Z 07005KT 12/M04 A301 RMK A01 T01241041  RH  031%=      5-min Rain = 0
KCO2 172326Z 07007KT 12/M04 A301 RMK A01 T01231042  RH  031%=      5-min Rain = 0
KCO2 172327Z 07006KT 12/M04 A301 RMK A01 T01231043  RH  031%=      5-min Rain = 0
KCO2 172328Z 06007KT 12/M04 A301 RMK A01 T01221042  RH  031%=      5-min Rain = 0
KCO2 172329Z 07007KT 12/M04 A301 RMK A01 T01211042  RH  032%=      5-min Rain = 0
KCO2 172330Z 07006KT 12/M04 A301 RMK A01 T01211042  RH  032%=      5-min Rain = 0
KCO2 172331Z 05006KT 12/M04 A301 RMK A01 T01201041  RH  032%=      5-min Rain = 0
KCO2 172332Z 06006KT 12/M04 A301 RMK A01 T01191041  RH  032%=      5-min Rain = 0
KCO2 172333Z 06006KT 12/M04 A301 RMK A01 T01181040  RH  033%=      5-min Rain = 0
KCO2 172334Z 06007KT 12/M04 A301 RMK A01 T01181040  RH  033%=      5-min Rain = 0
KCO2 172335Z 06006KT 12/M04 A301 RMK A01 T01171040  RH  033%=      5-min Rain = 0
KCO2 172336Z 06007KT 12/M04 A301 RMK A01 T01161040  RH  033%=      5-min Rain = 0
KCO2 172337Z 06006KT 12/M04 A301 RMK A01 T01151039  RH  034%=      5-min Rain = 0
KCO2 172338Z 06007KT 11/M04 A301 RMK A01 T01141039  RH  034%=      5-min Rain = 0
KCO2 172339Z 06006KT 11/M04 A301 RMK A01 T01141039  RH  034%=      5-min Rain = 0
KCO2 172340Z 06007KT 11/M04 A301 RMK A01 T01141039  RH  034%=      5-min Rain = 0
KCO2 172341Z 06006KT 11/M04 A301 RMK A01 T01131039  RH  034%=      5-min Rain = 0
KCO2 172342Z 06006KT 11/M04 A301 RMK A01 T01121039  RH  034%=      5-min Rain = 0
KCO2 172343Z 06005KT 11/M04 A301 RMK A01 T01111039  RH  035%=      5-min Rain = 0
KCO2 172344Z 06005KT 11/M04 A301 RMK A01 T01101039  RH  035%=      5-min Rain = 0
KCO2 172345Z 06005KT 11/M04 A301 RMK A01 T01091039  RH  035%=      5-min Rain = 0
KCO2 172346Z 06005KT 11/M04 A301 RMK A01 T01081039  RH  035%=      5-min Rain = 0
KCO2 172347Z 06005KT 11/M04 A301 RMK A01 T01071039  RH  036%=      5-min Rain = 0
KCO2 172348Z 06005KT 11/M04 A301 RMK A01 T01061039  RH  036%=      5-min Rain = 0
KCO2 172349Z 05005KT 11/M04 A301 RMK A01 T01051039  RH  036%=      5-min Rain = 0
KCO2 172350Z 06006KT 10/M04 A301 RMK A01 T01031039  RH  037%=      5-min Rain = 0
KCO2 172351Z 06007KT 10/M04 A301 RMK A01 T01031039  RH  037%=      5-min Rain = 0
KCO2 172352Z 06006KT 10/M04 A301 RMK A01 T01021038  RH  037%=      5-min Rain = 0
KCO2 172353Z 06006KT 10/M04 A301 RMK A01 T01021038  RH  037%=      5-min Rain = 0
KCO2 172354Z 06005KT 10/M04 A301 RMK A01 T01021038  RH  037%=      5-min Rain = 0
KCO2 172355Z 05005KT 10/M04 A301 RMK A01 T01001038  RH  038%=      5-min Rain = 0
KCO2 172356Z 05006KT 10/M04 A301 RMK A01 T00991038  RH  038%=      5-min Rain = 0
KCO2 172357Z 05006KT 10/M04 A301 RMK A01 T00981038  RH  038%=      5-min Rain = 0
KCO2 172358Z 05005KT 10/M04 A301 RMK A01 T00971038  RH  039%=      5-min Rain = 0
KCO2 172359Z 05006KT 10/M04 A301 RMK A01 T00951038  RH  039%=      5-min Rain = 0
KCO2 180000Z 05006KT 09/M04 A301 RMK A01 T00941038  RH  039%=      5-min Rain = 0
KCO2 180001Z 05006KT 09/M04 A301 RMK A01 T00931038  RH  040%=      5-min Rain = 0
KCO2 180002Z 05006KT 09/M04 A301 RMK A01 T00921038  RH  040%=      5-min Rain = 0
KCO2 180003Z 05006KT 09/M04 A301 RMK A01 T00911038  RH  040%=      5-min Rain = 0
KCO2 180004Z 05006KT 09/M04 A301 RMK A01 T00891038  RH  040%=      5-min Rain = 0
KCO2 180005Z 05006KT 09/M04 A301 RMK A01 T00881038  RH  041%=      5-min Rain = 0
KCO2 180006Z 05006KT 09/M04 A301 RMK A01 T00871038  RH  041%=      5-min Rain = 0
KCO2 180007Z 05006KT 09/M04 A301 RMK A01 T00851038  RH  041%=      5-min Rain = 0
KCO2 180008Z 05006KT 08/M04 A301 RMK A01 T00841039  RH  042%=      5-min Rain = 0
KCO2 180009Z 04006KT 08/M04 A301 RMK A01 T00821039  RH  042%=      5-min Rain = 0
KCO2 180010Z 04006KT 08/M04 A301 RMK A01 T00811039  RH  042%=      5-min Rain = 0
KCO2 180011Z 04006KT 08/M04 A301 RMK A01 T00791039  RH  043%=      5-min Rain = 0
KCO2 180012Z 05006KT 08/M04 A301 RMK A01 T00781040  RH  043%=      5-min Rain = 0
KCO2 180013Z 05006KT 08/M04 A301 RMK A01 T00771040  RH  043%=      5-min Rain = 0
KCO2 180014Z 05007KT 08/M04 A301 RMK A01 T00761039  RH  044%=      5-min Rain = 0
KCO2 180015Z 05007KT 08/M04 A301 RMK A01 T00761039  RH  044%=      5-min Rain = 0
KCO2 180016Z 05007KT 08/M04 A301 RMK A01 T00751039  RH  044%=      5-min Rain = 0
KCO2 180017Z 05007KT 07/M04 A301 RMK A01 T00741040  RH  044%=      5-min Rain = 0
KCO2 180018Z 05007KT 07/M04 A301 RMK A01 T00731040  RH  045%=      5-min Rain = 0
KCO2 180019Z 05007KT 07/M04 A301 RMK A01 T00721040  RH  045%=      5-min Rain = 0
KCO2 180020Z 04007KT 07/M04 A301 RMK A01 T00711040  RH  045%=      5-min Rain = 0
KCO2 180021Z 05007KT 07/M04 A301 RMK A01 T00701040  RH  045%=      5-min Rain = 0
KCO2 180022Z 05007KT 07/M04 A301 RMK A01 T00701040  RH  046%=      5-min Rain = 0
KCO2 180023Z 05007KT 07/M04 A301 RMK A01 T00691039  RH  046%=      5-min Rain = 0
KCO2 180024Z 05007KT 07/M04 A301 RMK A01 T00681039  RH  046%=      5-min Rain = 0
KCO2 180025Z 05007KT 07/M04 A301 RMK A01 T00681039  RH  046%=      5-min Rain = 0
KCO2 180026Z 05007KT 07/M04 A301 RMK A01 T00671039  RH  046%=      5-min Rain = 0
KCO2 180027Z 05007KT 07/M04 A301 RMK A01 T00671039  RH  047%=      5-min Rain = 0
KCO2 180028Z 05008KT 07/M04 A301 RMK A01 T00661039  RH  047%=      5-min Rain = 0
KCO2 180029Z 05008KT 07/M04 A301 RMK A01 T00661039  RH  047%=      5-min Rain = 0
KCO2 180030Z 05008KT 07/M04 A301 RMK A01 T00661039  RH  047%=      5-min Rain = 0
KCO2 180031Z 05008KT 07/M04 A301 RMK A01 T00651039  RH  047%=      5-min Rain = 0
KCO2 180032Z 05008KT 07/M04 A301 RMK A01 T00651039  RH  047%=      5-min Rain = 0
KCO2 180033Z 05008KT 06/M04 A301 RMK A01 T00641039  RH  048%=      5-min Rain = 0
KCO2 180034Z 05008KT 07/M04 A3011 RMK A01 T00651039  RH  048%=      5-min Rain = 0
KCO2 180035Z 05008KT 06/M04 A3011 RMK A01 T00641039  RH  048%=      5-min Rain = 0
KCO2 180036Z 05008KT 06/M04 A3011 RMK A01 T00641038  RH  048%=      5-min Rain = 0
KCO2 180037Z 05008KT 06/M04 A3011 RMK A01 T00641038  RH  048%=      5-min Rain = 0
KCO2 180038Z 05008KT 06/M04 A3011 RMK A01 T00641038  RH  048%=      5-min Rain = 0
KCO2 180039Z 05008KT 06/M04 A3011 RMK A01 T00641038  RH  048%=      5-min Rain = 0
KCO2 180040Z 05008KT 06/M04 A3011 RMK A01 T00641038  RH  048%=      5-min Rain = 0
KCO2 180041Z 05008KT 06/M04 A3011 RMK A01 T00641038  RH  048%=      5-min Rain = 0
KCO2 180042Z 05008KT 06/M04 A3011 RMK A01 T00641038  RH  048%=      5-min Rain = 0
KCO2 180043Z 04008KT 06/M04 A3011 RMK A01 T00641038  RH  048%=      5-min Rain = 0
KCO2 180044Z 04008KT 06/M04 A3011 RMK A01 T00641038  RH  048%=      5-min Rain = 0
KCO2 180045Z 04008KT 06/M04 A3011 RMK A01 T00631038  RH  048%=      5-min Rain = 0
KCO2 180046Z 05008KT 06/M04 A3011 RMK A01 T00631038  RH  048%=      5-min Rain = 0
KCO2 180047Z 05008KT 06/M04 A3011 RMK A01 T00631038  RH  048%=      5-min Rain = 0
KCO2 180048Z 05008KT 06/M04 A3011 RMK A01 T00621038  RH  048%=      5-min Rain = 0
KCO2 180049Z 05008KT 06/M04 A3011 RMK A01 T00621038  RH  049%=      5-min Rain = 0
KCO2 180050Z 05008KT 06/M04 A3011 RMK A01 T00621038  RH  049%=      5-min Rain = 0
KCO2 180051Z 05008KT 06/M04 A3011 RMK A01 T00621038  RH  049%=      5-min Rain = 0
KCO2 180052Z 05008KT 06/M04 A3011 RMK A01 T00621038  RH  049%=      5-min Rain = 0
KCO2 180053Z 05008KT 06/M04 A3011 RMK A01 T00621038  RH  049%=      5-min Rain = 0
KCO2 180054Z 05008KT 06/M04 A3011 RMK A01 T00621038  RH  049%=      5-min Rain = 0
KCO2 180055Z 05008KT 06/M04 A3011 RMK A01 T00611038  RH  049%=      5-min Rain = 0
KCO2 180056Z 05008KT 06/M04 A3011 RMK A01 T00611038  RH  049%=      5-min Rain = 0
KCO2 180057Z 05008KT 06/M04 A3011 RMK A01 T00601039  RH  049%=      5-min Rain = 0
KCO2 180058Z 05008KT 06/M04 A3011 RMK A01 T00601038  RH  049%=      5-min Rain = 0
KCO2 180059Z 05008KT 06/M04 A3011 RMK A01 T00601038  RH  049%=      5-min Rain = 0
KCO2 180100Z 05008KT 06/M04 A3011 RMK A01 T00601038  RH  049%=      5-min Rain = 0
KCO2 180101Z 05008KT 06/M04 A3011 RMK A01 T00601038  RH  049%=      5-min Rain = 0
KCO2 180102Z 05008KT 06/M04 A3011 RMK A01 T00601038  RH  049%=      5-min Rain = 0
KCO2 180103Z 05008KT 06/M04 A3011 RMK A01 T00591039  RH  049%=      5-min Rain = 0
KCO2 180104Z 05008KT 06/M04 A3011 RMK A01 T00591038  RH  050%=      5-min Rain = 0
KCO2 180105Z 05008KT 06/M04 A3011 RMK A01 T00591038  RH  050%=      5-min Rain = 0
KCO2 180106Z 05008KT 06/M04 A3011 RMK A01 T00591038  RH  050%=      5-min Rain = 0
KCO2 180107Z 05008KT 06/M04 A3011 RMK A01 T00591038  RH  050%=      5-min Rain = 0
KCO2 180108Z 05008KT 06/M04 A3011 RMK A01 T00581039  RH  050%=      5-min Rain = 0
KCO2 180109Z 05008KT 06/M04 A3011 RMK A01 T00581039  RH  050%=      5-min Rain = 0
KCO2 180110Z 05008KT 06/M04 A3011 RMK A01 T00571039  RH  050%=      5-min Rain = 0
KCO2 180111Z 05008KT 06/M04 A3011 RMK A01 T00571038  RH  050%=      5-min Rain = 0
KCO2 180112Z 05008KT 06/M04 A3011 RMK A01 T00571038  RH  050%=      5-min Rain = 0
KCO2 180113Z 05008KT 06/M04 A3011 RMK A01 T00571038  RH  050%=      5-min Rain = 0
KCO2 180114Z 05008KT 06/M04 A3011 RMK A01 T00571038  RH  050%=      5-min Rain = 0
KCO2 180115Z 05008KT 06/M04 A3011 RMK A01 T00571039  RH  050%=      5-min Rain = 0
KCO2 180116Z 05008KT 06/M04 A3011 RMK A01 T00571038  RH  050%=      5-min Rain = 0
KCO2 180117Z 06008KT 06/M04 A3011 RMK A01 T00571038  RH  050%=      5-min Rain = 0
KCO2 180118Z 06008KT 06/M04 A3011 RMK A01 T00571039  RH  050%=      5-min Rain = 0
KCO2 180119Z 06008KT 06/M04 A3011 RMK A01 T00571039  RH  050%=      5-min Rain = 0
KCO2 180120Z 06008KT 06/M04 A3011 RMK A01 T00571039  RH  050%=      5-min Rain = 0
KCO2 180121Z 06008KT 06/M04 A3011 RMK A01 T00561039  RH  050%=      5-min Rain = 0
KCO2 180122Z 06008KT 06/M04 A3011 RMK A01 T00561039  RH  050%=      5-min Rain = 0
KCO2 180123Z 06008KT 06/M04 A3011 RMK A01 T00551039  RH  051%=      5-min Rain = 0
KCO2 180124Z 06008KT 05/M04 A3011 RMK A01 T00541039  RH  051%=      5-min Rain = 0
KCO2 180125Z 06008KT 05/M04 A3011 RMK A01 T00531040  RH  051%=      5-min Rain = 0
KCO2 180126Z 06008KT 05/M04 A3011 RMK A01 T00521040  RH  051%=      5-min Rain = 0
KCO2 180127Z 06008KT 05/M04 A3011 RMK A01 T00521040  RH  051%=      5-min Rain = 0
KCO2 180128Z 06008KT 05/M04 A3011 RMK A01 T00511040  RH  052%=      5-min Rain = 0
KCO2 180129Z 06008KT 05/M04 A3011 RMK A01 T00501041  RH  052%=      5-min Rain = 0
KCO2 180130Z 06008KT 05/M04 A3011 RMK A01 T00501041  RH  052%=      5-min Rain = 0
KCO2 180131Z 06008KT 05/M04 A3011 RMK A01 T00491041  RH  052%=      5-min Rain = 0
KCO2 180132Z 06008KT 05/M04 A3011 RMK A01 T00491041  RH  052%=      5-min Rain = 0
KCO2 180133Z 06008KT 05/M04 A3011 RMK A01 T00481040  RH  053%=      5-min Rain = 0
KCO2 180134Z 06008KT 05/M04 A3011 RMK A01 T00481041  RH  053%=      5-min Rain = 0
KCO2 180135Z 06008KT 05/M04 A3011 RMK A01 T00481041  RH  052%=      5-min Rain = 0
KCO2 180136Z 06008KT 05/M04 A3011 RMK A01 T00481041  RH  052%=      5-min Rain = 0
KCO2 180137Z 06008KT 05/M04 A3011 RMK A01 T00481041  RH  052%=      5-min Rain = 0
KCO2 180138Z 06008KT 05/M04 A3011 RMK A01 T00481041  RH  052%=      5-min Rain = 0
KCO2 180139Z 06008KT 05/M04 A3011 RMK A01 T00471042  RH  053%=      5-min Rain = 0
KCO2 180140Z 06008KT 05/M04 A3011 RMK A01 T00471042  RH  053%=      5-min Rain = 0
KCO2 180141Z 05008KT 05/M04 A3011 RMK A01 T00471042  RH  053%=      5-min Rain = 0
KCO2 180142Z 06008KT 05/M04 A3011 RMK A01 T00461041  RH  053%=      5-min Rain = 0
KCO2 180143Z 06008KT 05/M04 A3011 RMK A01 T00461042  RH  053%=      5-min Rain = 0
KCO2 180144Z 06008KT 05/M04 A3011 RMK A01 T00461041  RH  053%=      5-min Rain = 0
KCO2 180145Z 06008KT 05/M04 A3011 RMK A01 T00461042  RH  053%=      5-min Rain = 0
KCO2 180146Z 06008KT 05/M04 A3011 RMK A01 T00461042  RH  053%=      5-min Rain = 0
KCO2 180147Z 06008KT 05/M04 A3011 RMK A01 T00471041  RH  053%=      5-min Rain = 0
KCO2 180148Z 06008KT 05/M04 A3011 RMK A01 T00471042  RH  053%=      5-min Rain = 0
KCO2 180149Z 06008KT 05/M04 A3011 RMK A01 T00471042  RH  053%=      5-min Rain = 0
KCO2 180150Z 06008KT 05/M04 A3011 RMK A01 T00461042  RH  053%=      5-min Rain = 0
KCO2 180151Z 06008KT 05/M04 A3011 RMK A01 T00461042  RH  053%=      5-min Rain = 0
KCO2 180152Z 06008KT 05/M04 A3011 RMK A01 T00451042  RH  053%=      5-min Rain = 0
KCO2 180153Z 06007KT 05/M04 A3011 RMK A01 T00451042  RH  053%=      5-min Rain = 0
KCO2 180154Z 06007KT 05/M04 A3011 RMK A01 T00451042  RH  053%=      5-min Rain = 0
KCO2 180155Z 06008KT 05/M04 A3011 RMK A01 T00451042  RH  053%=      5-min Rain = 0
KCO2 180156Z 06008KT 04/M04 A3011 RMK A01 T00441042  RH  053%=      5-min Rain = 0
KCO2 180157Z 06008KT 05/M04 A3011 RMK A01 T00451042  RH  053%=      5-min Rain = 0
KCO2 180158Z 06008KT 04/M04 A3011 RMK A01 T00441042  RH  054%=      5-min Rain = 0
KCO2 180159Z 06008KT 04/M04 A3011 RMK A01 T00441042  RH  054%=      5-min Rain = 0
KCO2 180200Z 06008KT 04/M04 A3011 RMK A01 T00431042  RH  054%=      5-min Rain = 0
KCO2 180201Z 06008KT 04/M04 A3011 RMK A01 T00421042  RH  054%=      5-min Rain = 0
KCO2 180202Z 06008KT 04/M04 A3011 RMK A01 T00421042  RH  054%=      5-min Rain = 0
KCO2 180203Z 06008KT 04/M04 A3011 RMK A01 T00421042  RH  054%=      5-min Rain = 0
KCO2 180204Z 06008KT 04/M04 A3011 RMK A01 T00421042  RH  054%=      5-min Rain = 0
KCO2 180205Z 06008KT 04/M04 A3011 RMK A01 T00421042  RH  054%=      5-min Rain = 0
KCO2 180206Z 06008KT 04/M04 A3011 RMK A01 T00421042  RH  054%=      5-min Rain = 0
KCO2 180207Z 06008KT 04/M04 A3011 RMK A01 T00421042  RH  054%=      5-min Rain = 0
KCO2 180208Z 06008KT 04/M04 A3011 RMK A01 T00421042  RH  054%=      5-min Rain = 0
KCO2 180209Z 06008KT 04/M04 A3011 RMK A01 T00421042  RH  054%=      5-min Rain = 0
KCO2 180210Z 06008KT 04/M04 A3011 RMK A01 T00421042  RH  055%=      5-min Rain = 0
KCO2 180211Z 06008KT 04/M04 A3011 RMK A01 T00411042  RH  055%=      5-min Rain = 0
KCO2 180212Z 06008KT 04/M04 A3011 RMK A01 T00411042  RH  055%=      5-min Rain = 0
KCO2 180213Z 06007KT 04/M04 A3011 RMK A01 T00401042  RH  055%=      5-min Rain = 0
KCO2 180214Z 06007KT 04/M04 A3011 RMK A01 T00401042  RH  055%=      5-min Rain = 0
KCO2 180215Z 06007KT 04/M04 A3011 RMK A01 T00401042  RH  055%=      5-min Rain = 0
KCO2 180216Z 06007KT 04/M04 A3011 RMK A01 T00401041  RH  055%=      5-min Rain = 0
KCO2 180217Z 06007KT 04/M04 A3011 RMK A01 T00401042  RH  055%=      5-min Rain = 0
KCO2 180218Z 06007KT 04/M04 A3011 RMK A01 T00401042  RH  055%=      5-min Rain = 0
KCO2 180219Z 06007KT 04/M04 A3011 RMK A01 T00401042  RH  055%=      5-min Rain = 0
KCO2 180220Z 06007KT 04/M04 A3011 RMK A01 T00401042  RH  055%=      5-min Rain = 0
KCO2 180221Z 06007KT 04/M04 A3011 RMK A01 T00411041  RH  055%=      5-min Rain = 0
KCO2 180222Z 06007KT 04/M04 A3011 RMK A01 T00411041  RH  055%=      5-min Rain = 0
KCO2 180223Z 06007KT 04/M04 A3011 RMK A01 T00411041  RH  055%=      5-min Rain = 0
KCO2 180224Z 06007KT 04/M04 A3011 RMK A01 T00411042  RH  055%=      5-min Rain = 0
KCO2 180225Z 07007KT 04/M04 A3011 RMK A01 T00411042  RH  055%=      5-min Rain = 0
KCO2 180226Z 07007KT 04/M04 A3011 RMK A01 T00411042  RH  055%=      5-min Rain = 0
KCO2 180227Z 07007KT 04/M04 A3011 RMK A01 T00411042  RH  055%=      5-min Rain = 0
KCO2 180228Z 07007KT 04/M04 A3011 RMK A01 T00411042  RH  055%=      5-min Rain = 0
KCO2 180229Z 07007KT 04/M04 A3011 RMK A01 T00411042  RH  055%=      5-min Rain = 0
KCO2 180230Z 07007KT 04/M04 A3011 RMK A01 T00411042  RH  055%=      5-min Rain = 0
KCO2 180231Z 07007KT 04/M04 A3011 RMK A01 T00411042  RH  055%=      5-min Rain = 0
KCO2 180232Z 07007KT 04/M04 A3011 RMK A01 T00411042  RH  055%=      5-min Rain = 0
KCO2 180233Z 07007KT 04/M04 A3011 RMK A01 T00401042  RH  055%=      5-min Rain = 0
KCO2 180234Z 07007KT 04/M04 A3011 RMK A01 T00401042  RH  055%=      5-min Rain = 0
KCO2 180235Z 07007KT 04/M04 A3011 RMK A01 T00401042  RH  055%=      5-min Rain = 0
KCO2 180236Z 07007KT 04/M04 A301 RMK A01 T00391042  RH  055%=      5-min Rain = 0
KCO2 180237Z 08007KT 04/M04 A301 RMK A01 T00391042  RH  056%=      5-min Rain = 0
KCO2 180238Z 08007KT 04/M04 A301 RMK A01 T00381042  RH  056%=      5-min Rain = 0
KCO2 180239Z 08007KT 04/M04 A301 RMK A01 T00381042  RH  056%=      5-min Rain = 0
KCO2 180240Z 08007KT 04/M04 A301 RMK A01 T00371042  RH  056%=      5-min Rain = 0
KCO2 180241Z 08008KT 04/M04 A301 RMK A01 T00371041  RH  057%=      5-min Rain = 0
KCO2 180242Z 08007KT 04/M04 A301 RMK A01 T00361041  RH  057%=      5-min Rain = 0
KCO2 180243Z 08007KT 04/M04 A301 RMK A01 T00351041  RH  057%=      5-min Rain = 0
KCO2 180244Z 08007KT 04/M04 A301 RMK A01 T00351041  RH  057%=      5-min Rain = 0
KCO2 180245Z 08007KT 03/M04 A301 RMK A01 T00341041  RH  058%=      5-min Rain = 0
KCO2 180246Z 08007KT 03/M04 A301 RMK A01 T00341041  RH  058%=      5-min Rain = 0
KCO2 180247Z 08007KT 03/M04 A301 RMK A01 T00331042  RH  058%=      5-min Rain = 0
KCO2 180248Z 08007KT 03/M04 A301 RMK A01 T00331041  RH  058%=      5-min Rain = 0
KCO2 180249Z 08007KT 03/M04 A301 RMK A01 T00321042  RH  058%=      5-min Rain = 0
KCO2 180250Z 08007KT 03/M04 A301 RMK A01 T00311042  RH  059%=      5-min Rain = 0
KCO2 180251Z 08007KT 03/M04 A301 RMK A01 T00311042  RH  059%=      5-min Rain = 0
KCO2 180252Z 08007KT 03/M04 A301 RMK A01 T00311041  RH  059%=      5-min Rain = 0
KCO2 180253Z 08008KT 03/M04 A301 RMK A01 T00311041  RH  059%=      5-min Rain = 0
KCO2 180254Z 08008KT 03/M04 A301 RMK A01 T00311041  RH  059%=      5-min Rain = 0
KCO2 180255Z 08008KT 03/M04 A301 RMK A01 T00311041  RH  059%=      5-min Rain = 0
KCO2 180256Z 08008KT 03/M04 A301 RMK A01 T00301041  RH  060%=      5-min Rain = 0
KCO2 180257Z 08008KT 03/M04 A301 RMK A01 T00301040  RH  060%=      5-min Rain = 0
KCO2 180258Z 08008KT 03/M04 A301 RMK A01 T00301040  RH  060%=      5-min Rain = 0
KCO2 180259Z 08008KT 03/M04 A3009 RMK A01 T00301040  RH  060%=      5-min Rain = 0
KCO2 180300Z 08008KT 03/M04 A3009 RMK A01 T00311040  RH  060%=      5-min Rain = 0
KCO2 180301Z 08008KT 03/M04 A3009 RMK A01 T00321039  RH  060%=      5-min Rain = 0
KCO2 180302Z 08007KT 03/M04 A3009 RMK A01 T00331039  RH  059%=      5-min Rain = 0
KCO2 180303Z 08007KT 03/M04 A3009 RMK A01 T00341038  RH  059%=      5-min Rain = 0
KCO2 180304Z 08007KT 03/M04 A3009 RMK A01 T00341039  RH  059%=      5-min Rain = 0
KCO2 180305Z 08008KT 04/M04 A3009 RMK A01 T00351038  RH  059%=      5-min Rain = 0
KCO2 180306Z 08008KT 04/M04 A3009 RMK A01 T00351039  RH  059%=      5-min Rain = 0
KCO2 180307Z 08008KT 03/M04 A3009 RMK A01 T00341039  RH  059%=      5-min Rain = 0
KCO2 180308Z 08008KT 03/M04 A3009 RMK A01 T00331039  RH  059%=      5-min Rain = 0
KCO2 180309Z 08008KT 03/M04 A3009 RMK A01 T00321039  RH  060%=      5-min Rain = 0
KCO2 180310Z 08007KT 03/M04 A3009 RMK A01 T00311039  RH  060%=      5-min Rain = 0
KCO2 180311Z 08007KT 03/M04 A3009 RMK A01 T00301039  RH  060%=      5-min Rain = 0
KCO2 180312Z 08007KT 03/M04 A3009 RMK A01 T00281040  RH  061%=      5-min Rain = 0
KCO2 180313Z 08007KT 03/M04 A3009 RMK A01 T00271040  RH  061%=      5-min Rain = 0
KCO2 180314Z 08007KT 03/M04 A3009 RMK A01 T00271039  RH  062%=      5-min Rain = 0
KCO2 180315Z 09007KT 03/M04 A3009 RMK A01 T00271039  RH  062%=      5-min Rain = 0
KCO2 180316Z 09006KT 03/M04 A3009 RMK A01 T00271039  RH  062%=      5-min Rain = 0
KCO2 180317Z 09006KT 03/M04 A3009 RMK A01 T00271039  RH  062%=      5-min Rain = 0
KCO2 180318Z 09006KT 03/M04 A3009 RMK A01 T00281039  RH  061%=      5-min Rain = 0
KCO2 180319Z 09006KT 03/M04 A3009 RMK A01 T00281039  RH  061%=      5-min Rain = 0
KCO2 180320Z 09006KT 03/M04 A3009 RMK A01 T00281039  RH  061%=      5-min Rain = 0
KCO2 180321Z 09006KT 03/M04 A3009 RMK A01 T00271039  RH  062%=      5-min Rain = 0
KCO2 180322Z 09006KT 03/M04 A3008 RMK A01 T00261040  RH  062%=      5-min Rain = 0
KCO2 180323Z 09006KT 03/M04 A3008 RMK A01 T00261040  RH  062%=      5-min Rain = 0
KCO2 180324Z 09006KT 03/M04 A3008 RMK A01 T00251040  RH  062%=      5-min Rain = 0
KCO2 180325Z 09006KT 03/M04 A3008 RMK A01 T00251039  RH  062%=      5-min Rain = 0
KCO2 180326Z 09006KT 03/M04 A3008 RMK A01 T00251039  RH  063%=      5-min Rain = 0
KCO2 180327Z 09006KT 03/M04 A3008 RMK A01 T00251039  RH  063%=      5-min Rain = 0
KCO2 180328Z 09006KT 03/M04 A3008 RMK A01 T00251039  RH  063%=      5-min Rain = 0
KCO2 180329Z 09006KT 03/M04 A3008 RMK A01 T00251039  RH  063%=      5-min Rain = 0
KCO2 180330Z 09006KT 02/M04 A3008 RMK A01 T00241040  RH  063%=      5-min Rain = 0
KCO2 180331Z 09006KT 02/M04 A3008 RMK A01 T00231040  RH  063%=      5-min Rain = 0
KCO2 180332Z 09006KT 02/M04 A3008 RMK A01 T00221040  RH  063%=      5-min Rain = 0
KCO2 180333Z 09006KT 02/M04 A3008 RMK A01 T00221040  RH  064%=      5-min Rain = 0
KCO2 180334Z 08007KT 02/M04 A3008 RMK A01 T00211040  RH  064%=      5-min Rain = 0
KCO2 180335Z 08007KT 02/M04 A3008 RMK A01 T00201040  RH  064%=      5-min Rain = 0
KCO2 180336Z 08007KT 02/M04 A3008 RMK A01 T00191040  RH  065%=      5-min Rain = 0
KCO2 180337Z 08007KT 02/M04 A3008 RMK A01 T00191040  RH  065%=      5-min Rain = 0
KCO2 180338Z 08007KT 02/M04 A3008 RMK A01 T00181040  RH  065%=      5-min Rain = 0
KCO2 180339Z 09007KT 02/M04 A3008 RMK A01 T00171041  RH  065%=      5-min Rain = 0
KCO2 180340Z 09007KT 02/M04 A3008 RMK A01 T00171041  RH  065%=      5-min Rain = 0
KCO2 180341Z 09007KT 02/M04 A3008 RMK A01 T00171041  RH  066%=      5-min Rain = 0
KCO2 180342Z 09007KT 02/M04 A3008 RMK A01 T00171041  RH  066%=      5-min Rain = 0
KCO2 180343Z 09007KT 02/M04 A3008 RMK A01 T00161041  RH  066%=      5-min Rain = 0
KCO2 180344Z 09007KT 02/M04 A3008 RMK A01 T00171041  RH  066%=      5-min Rain = 0
KCO2 180345Z 09007KT 02/M04 A3008 RMK A01 T00171040  RH  066%=      5-min Rain = 0
KCO2 180346Z 09007KT 02/M04 A3007 RMK A01 T00171040  RH  066%=      5-min Rain = 0
KCO2 180347Z 09007KT 02/M04 A3007 RMK A01 T00171040  RH  066%=      5-min Rain = 0
KCO2 180348Z 09007KT 02/M04 A3007 RMK A01 T00181040  RH  066%=      5-min Rain = 0
KCO2 180349Z 09007KT 02/M04 A3007 RMK A01 T00181040  RH  066%=      5-min Rain = 0
KCO2 180350Z 09006KT 02/M04 A3007 RMK A01 T00181040  RH  066%=      5-min Rain = 0
KCO2 180351Z 09006KT 02/M04 A3008 RMK A01 T00181040  RH  066%=      5-min Rain = 0
KCO2 180352Z 09006KT 02/M04 A3008 RMK A01 T00181039  RH  065%=      5-min Rain = 0
KCO2 180353Z 10006KT 02/M04 A3008 RMK A01 T00191039  RH  065%=      5-min Rain = 0
KCO2 180354Z 10006KT 02/M04 A3008 RMK A01 T00191039  RH  065%=      5-min Rain = 0
KCO2 180355Z 10006KT 02/M04 A3008 RMK A01 T00201039  RH  065%=      5-min Rain = 0
KCO2 180356Z 10006KT 02/M04 A3008 RMK A01 T00211039  RH  065%=      5-min Rain = 0
KCO2 180357Z 10006KT 02/M04 A3008 RMK A01 T00211039  RH  064%=      5-min Rain = 0
KCO2 180358Z 10005KT 02/M04 A3008 RMK A01 T00211039  RH  064%=      5-min Rain = 0
KCO2 180359Z 10005KT 02/M04 A3008 RMK A01 T00221039  RH  064%=      5-min Rain = 0
KCO2 180400Z 10005KT 02/M04 A3008 RMK A01 T00221039  RH  064%=      5-min Rain = 0
KCO2 180401Z 10005KT 02/M04 A3007 RMK A01 T00211040  RH  064%=      5-min Rain = 0
KCO2 180402Z 10005KT 02/M04 A3007 RMK A01 T00211040  RH  064%=      5-min Rain = 0
KCO2 180403Z 10005KT 02/M04 A3008 RMK A01 T00211040  RH  064%=      5-min Rain = 0
KCO2 180404Z 10005KT 02/M04 A3008 RMK A01 T00211040  RH  064%=      5-min Rain = 0
KCO2 180405Z 09005KT 02/M04 A3007 RMK A01 T00201040  RH  065%=      5-min Rain = 0
KCO2 180406Z 09005KT 02/M04 A3007 RMK A01 T00191040  RH  065%=      5-min Rain = 0
KCO2 180407Z 10005KT 02/M04 A3007 RMK A01 T00191040  RH  065%=      5-min Rain = 0
KCO2 180408Z 10005KT 02/M04 A3008 RMK A01 T00191040  RH  065%=      5-min Rain = 0
KCO2 180409Z 10005KT 02/M04 A3008 RMK A01 T00191040  RH  065%=      5-min Rain = 0
KCO2 180410Z 11005KT 02/M04 A3008 RMK A01 T00181041  RH  065%=      5-min Rain = 0
KCO2 180411Z 11005KT 02/M04 A3008 RMK A01 T00161041  RH  066%=      5-min Rain = 0
KCO2 180412Z 11005KT 02/M04 A3008 RMK A01 T00151041  RH  066%=      5-min Rain = 0
KCO2 180413Z 11005KT 01/M04 A3008 RMK A01 T00141041  RH  067%=      5-min Rain = 0
KCO2 180414Z 11005KT 01/M04 A3007 RMK A01 T00131041  RH  067%=      5-min Rain = 0
KCO2 180415Z 11005KT 01/M04 A3007 RMK A01 T00131041  RH  067%=      5-min Rain = 0
KCO2 180416Z 11006KT 01/M04 A3007 RMK A01 T00131040  RH  067%=      5-min Rain = 0
KCO2 180417Z 12006KT 01/M04 A3007 RMK A01 T00141040  RH  067%=      5-min Rain = 0
KCO2 180418Z 12006KT 01/M04 A3007 RMK A01 T00141041  RH  067%=      5-min Rain = 0
KCO2 180419Z 12005KT 01/M04 A3007 RMK A01 T00141041  RH  067%=      5-min Rain = 0
KCO2 180420Z 12005KT 01/M04 A3007 RMK A01 T00141041  RH  067%=      5-min Rain = 0
KCO2 180421Z 12005KT 01/M04 A3007 RMK A01 T00141040  RH  067%=      5-min Rain = 0
KCO2 180422Z 13005KT 01/M04 A3007 RMK A01 T00131041  RH  067%=      5-min Rain = 0
KCO2 180423Z 13005KT 01/M04 A3007 RMK A01 T00131040  RH  068%=      5-min Rain = 0
KCO2 180424Z 12005KT 01/M04 A3007 RMK A01 T00121041  RH  068%=      5-min Rain = 0
KCO2 180425Z 12005KT 01/M04 A3007 RMK A01 T00131040  RH  068%=      5-min Rain = 0
KCO2 180426Z 12005KT 01/M04 A3007 RMK A01 T00131040  RH  068%=      5-min Rain = 0
KCO2 180427Z 12005KT 01/M04 A3007 RMK A01 T00141040  RH  067%=      5-min Rain = 0
KCO2 180428Z 12005KT 01/M04 A3007 RMK A01 T00141040  RH  067%=      5-min Rain = 0
KCO2 180429Z 12005KT 02/M04 A3007 RMK A01 T00151040  RH  067%=      5-min Rain = 0
KCO2 180430Z 13005KT 02/M04 A3007 RMK A01 T00151040  RH  067%=      5-min Rain = 0
KCO2 180431Z 13004KT 02/M04 A3007 RMK A01 T00161040  RH  067%=      5-min Rain = 0
KCO2 180432Z 13005KT 02/M04 A3007 RMK A01 T00151040  RH  067%=      5-min Rain = 0
KCO2 180433Z 13005KT 02/M04 A3007 RMK A01 T00151040  RH  067%=      5-min Rain = 0
KCO2 180434Z 13004KT 01/M04 A3007 RMK A01 T00141040  RH  067%=      5-min Rain = 0
KCO2 180435Z 14004KT 01/M04 A3007 RMK A01 T00141040  RH  067%=      5-min Rain = 0
KCO2 180436Z 14004KT 01/M04 A3007 RMK A01 T00131040  RH  067%=      5-min Rain = 0
KCO2 180437Z 15005KT 01/M04 A3007 RMK A01 T00121041  RH  067%=      5-min Rain = 0
KCO2 180438Z 16005KT 01/M04 A3007 RMK A01 T00111042  RH  068%=      5-min Rain = 0
KCO2 180439Z 16005KT 01/M04 A3007 RMK A01 T00101042  RH  068%=      5-min Rain = 0
KCO2 180440Z 16005KT 01/M04 A3007 RMK A01 T00081042  RH  069%=      5-min Rain = 0
KCO2 180441Z 16005KT 01/M04 A3007 RMK A01 T00061043  RH  069%=      5-min Rain = 0
KCO2 180442Z 17005KT 00/M05 A3007 RMK A01 T00031046  RH  070%=      5-min Rain = 0
KCO2 180443Z 17005KT 00/05 A3007 RMK A01 T00000-46  RH  071%=      5-min Rain = 0
KCO2 180444Z 17005KT M00/M05 A3007 RMK A01 T10021046  RH  072%=      5-min Rain = 0
KCO2 180445Z 17004KT M00/M05 A3007 RMK A01 T10021045  RH  073%=      5-min Rain = 0
KCO2 180446Z 18004KT M00/M04 A3007 RMK A01 T10031044  RH  074%=      5-min Rain = 0
KCO2 180447Z 19004KT M00/M04 A3007 RMK A01 T10041044  RH  074%=      5-min Rain = 0
KCO2 180448Z 19004KT M00/M04 A3007 RMK A01 T10041044  RH  074%=      5-min Rain = 0
KCO2 180449Z 19004KT M00/M04 A3007 RMK A01 T10041044  RH  074%=      5-min Rain = 0
KCO2 180450Z 18004KT M00/M04 A3007 RMK A01 T10041043  RH  075%=      5-min Rain = 0
KCO2 180451Z 18004KT M00/M04 A3007 RMK A01 T10041043  RH  075%=      5-min Rain = 0
KCO2 180452Z 18004KT M00/M04 A3007 RMK A01 T10041043  RH  075%=      5-min Rain = 0
KCO2 180453Z 17003KT M00/M04 A3007 RMK A01 T10031043  RH  075%=      5-min Rain = 0
KCO2 180454Z 17004KT M00/M04 A3007 RMK A01 T10031043  RH  075%=      5-min Rain = 0
KCO2 180455Z 16004KT M00/M04 A3007 RMK A01 T10021042  RH  075%=      5-min Rain = 0
KCO2 180456Z 16004KT M00/M04 A3007 RMK A01 T10011041  RH  074%=      5-min Rain = 0
KCO2 180457Z 16005KT 00/04 A3007 RMK A01 T00000-41  RH  074%=      5-min Rain = 0
KCO2 180458Z 15005KT 00/M04 A3007 RMK A01 T00011041  RH  073%=      5-min Rain = 0
KCO2 180459Z 15006KT 00/M04 A3007 RMK A01 T00011041  RH  073%=      5-min Rain = 0
KCO2 180500Z 15006KT 00/M04 A3007 RMK A01 T00021041  RH  073%=      5-min Rain = 0
KCO2 180501Z 15006KT 00/M04 A3007 RMK A01 T00021041  RH  073%=      5-min Rain = 0
KCO2 180502Z 15006KT 00/M04 A3007 RMK A01 T00021041  RH  073%=      5-min Rain = 0
KCO2 180503Z 15006KT 00/M04 A3007 RMK A01 T00021041  RH  073%=      5-min Rain = 0
KCO2 180504Z 14006KT 00/M04 A3007 RMK A01 T00021040  RH  073%=      5-min Rain = 0
KCO2 180505Z 14006KT 00/M04 A3007 RMK A01 T00021040  RH  074%=      5-min Rain = 0
KCO2 180506Z 14006KT 00/M04 A3007 RMK A01 T00031039  RH  074%=      5-min Rain = 0
KCO2 180507Z 14006KT 00/M04 A3007 RMK A01 T00031039  RH  073%=      5-min Rain = 0
KCO2 180508Z 14006KT 00/M04 A3007 RMK A01 T00041038  RH  073%=      5-min Rain = 0
KCO2 180509Z 14007KT 00/M04 A3007 RMK A01 T00041039  RH  073%=      5-min Rain = 0
KCO2 180510Z 14007KT 00/M04 A3007 RMK A01 T00041038  RH  073%=      5-min Rain = 0
KCO2 180511Z 13007KT 00/M04 A3007 RMK A01 T00031039  RH  073%=      5-min Rain = 0
KCO2 180512Z 13007KT 00/M04 A3006 RMK A01 T00031039  RH  074%=      5-min Rain = 0
KCO2 180513Z 13007KT 00/M04 A3006 RMK A01 T00031038  RH  074%=      5-min Rain = 0
KCO2 180514Z 13007KT 00/M04 A3006 RMK A01 T00031038  RH  074%=      5-min Rain = 0
KCO2 180515Z 14007KT 00/M04 A3006 RMK A01 T00031037  RH  074%=      5-min Rain = 0
KCO2 180516Z 14007KT 00/M04 A3006 RMK A01 T00041037  RH  074%=      5-min Rain = 0
KCO2 180517Z 14007KT 00/M04 A3006 RMK A01 T00041037  RH  074%=      5-min Rain = 0
KCO2 180518Z 13007KT 00/M04 A3006 RMK A01 T00041037  RH  074%=      5-min Rain = 0
KCO2 180519Z 13007KT 01/M04 A3006 RMK A01 T00051037  RH  074%=      5-min Rain = 0
KCO2 180520Z 14007KT 01/M04 A3006 RMK A01 T00051036  RH  074%=      5-min Rain = 0
KCO2 180521Z 13007KT 01/M04 A3006 RMK A01 T00051036  RH  074%=      5-min Rain = 0
KCO2 180522Z 13006KT 01/M04 A3006 RMK A01 T00051037  RH  074%=      5-min Rain = 0
KCO2 180523Z 13006KT 01/M04 A3006 RMK A01 T00051037  RH  073%=      5-min Rain = 0
KCO2 180524Z 13006KT 01/M04 A3006 RMK A01 T00061037  RH  073%=      5-min Rain = 0
KCO2 180525Z 13006KT 01/M04 A3006 RMK A01 T00061037  RH  073%=      5-min Rain = 0
KCO2 180526Z 13006KT 01/M04 A3006 RMK A01 T00071037  RH  073%=      5-min Rain = 0
KCO2 180527Z 13006KT 01/M04 A3006 RMK A01 T00071037  RH  072%=      5-min Rain = 0
KCO2 180528Z 13006KT 01/M04 A3006 RMK A01 T00071037  RH  072%=      5-min Rain = 0
KCO2 180529Z 13007KT 01/M04 A3006 RMK A01 T00071037  RH  072%=      5-min Rain = 0
KCO2 180530Z 13007KT 01/M04 A3006 RMK A01 T00071038  RH  072%=      5-min Rain = 0
KCO2 180531Z 13006KT 01/M04 A3006 RMK A01 T00071038  RH  072%=      5-min Rain = 0
KCO2 180532Z 13006KT 01/M04 A3005 RMK A01 T00071038  RH  072%=      5-min Rain = 0
KCO2 180533Z 13006KT 01/M04 A3005 RMK A01 T00071038  RH  072%=      5-min Rain = 0
KCO2 180534Z 13006KT 01/M04 A3005 RMK A01 T00071037  RH  072%=      5-min Rain = 0
KCO2 180535Z 14006KT 01/M04 A3005 RMK A01 T00071038  RH  072%=      5-min Rain = 0
KCO2 180536Z 14006KT 01/M04 A3005 RMK A01 T00071038  RH  072%=      5-min Rain = 0
KCO2 180537Z 14007KT 01/M04 A3005 RMK A01 T00071038  RH  072%=      5-min Rain = 0
KCO2 180538Z 14006KT 01/M04 A3005 RMK A01 T00071038  RH  072%=      5-min Rain = 0
KCO2 180539Z 13006KT 01/M04 A3005 RMK A01 T00071038  RH  072%=      5-min Rain = 0
KCO2 180540Z 14006KT 01/M04 A3005 RMK A01 T00071038  RH  072%=      5-min Rain = 0
KCO2 180541Z 13006KT 01/M04 A3005 RMK A01 T00071038  RH  072%=      5-min Rain = 0
KCO2 180542Z 13006KT 01/M04 A3005 RMK A01 T00071038  RH  072%=      5-min Rain = 0
KCO2 180543Z 13006KT 01/M04 A3005 RMK A01 T00061039  RH  072%=      5-min Rain = 0
KCO2 180544Z 13006KT 01/M04 A3005 RMK A01 T00051039  RH  072%=      5-min Rain = 0
KCO2 180545Z 14006KT 01/M04 A3005 RMK A01 T00051039  RH  072%=      5-min Rain = 0
KCO2 180546Z 14006KT 01/M04 A3005 RMK A01 T00051039  RH  072%=      5-min Rain = 0
KCO2 180547Z 14006KT 01/M04 A3005 RMK A01 T00051039  RH  072%=      5-min Rain = 0
KCO2 180548Z 14006KT 01/M04 A3005 RMK A01 T00051039  RH  072%=      5-min Rain = 0
KCO2 180549Z 14006KT 01/M04 A3005 RMK A01 T00051039  RH  072%=      5-min Rain = 0
KCO2 180550Z 14006KT 01/M04 A3005 RMK A01 T00051039  RH  072%=      5-min Rain = 0
KCO2 180551Z 14006KT 01/M04 A3005 RMK A01 T00051039  RH  072%=      5-min Rain = 0
KCO2 180552Z 14006KT 01/M04 A3005 RMK A01 T00051039  RH  072%=      5-min Rain = 0
KCO2 180553Z 14006KT 01/M04 A3005 RMK A01 T00051039  RH  072%=      5-min Rain = 0
KCO2 180554Z 14006KT 01/M04 A3005 RMK A01 T00051039  RH  072%=      5-min Rain = 0
KCO2 180555Z 14006KT 01/M04 A3005 RMK A01 T00051039  RH  072%=      5-min Rain = 0
KCO2 180556Z 14006KT 01/M04 A3005 RMK A01 T00051039  RH  072%=      5-min Rain = 0
KCO2 180557Z 14006KT 01/M04 A3005 RMK A01 T00051039  RH  072%=      5-min Rain = 0
KCO2 180558Z 15006KT 01/M04 A3005 RMK A01 T00051039  RH  072%=      5-min Rain = 0
KCO2 180559Z 15006KT 01/M04 A3005 RMK A01 T00051039  RH  072%=      5-min Rain = 0

Page generated in 0.1145 seconds.